GFSFLT2_700_spd_000.txt.gz
Wind_Speed
4 4 4 4 4 5 5 3 4 6 6 3 5 7 7 8 8 7 9 10 11 12 12 13 13 12 10 11 12 14 18 20
6 3 2 5 6 6 5 4 5 6 5 5 8 10 11 11 12 13 15 15 15 16 17 18 18 18 17 17 16 17 18 18
5 2 6 8 9 8 6 4 5 6 7 9 11 13 15 16 17 19 20 20 19 19 19 20 21 21 21 19 18 18 18 17
5 3 8 9 10 10 8 7 7 9 10 12 14 16 19 21 23 24 25 26 26 26 25 24 25 25 25 25 23 22 21 21
7 6 8 8 9 10 10 9 9 9 10 11 13 15 17 20 22 25 26 27 29 29 29 29 29 29 30 30 30 28 26 25
7 5 5 7 9 11 14 12 10 9 10 12 14 16 17 19 21 24 25 27 28 28 29 30 31 31 31 32 32 32 31 31
6 3 2 6 7 10 14 13 13 11 12 15 13 14 17 21 24 25 26 27 26 26 26 26 27 28 29 30 32 34 34 34
5 5 3 7 9 11 14 14 15 15 15 18 17 16 19 22 23 26 27 28 27 27 26 26 26 25 26 28 30 33 35 36
7 8 7 9 13 15 15 19 20 21 20 20 19 18 22 22 21 23 26 27 28 28 29 30 30 31 31 31 32 33 35 36
12 12 12 13 16 18 21 21 21 23 22 23 22 23 25 25 25 25 26 27 28 28 28 30 31 31 32 33 33 34 36 38
15 16 15 16 20 22 22 22 25 26 24 24 22 24 27 29 28 26 30 31 31 32 31 34 35 37 37 36 36 36 37 36
17 17 17 20 22 22 20 24 24 24 25 26 28 29 32 32 31 31 31 32 32 34 36 37 41 40 42 43 42 41 40 39
14 19 19 22 23 21 23 26 26 26 26 27 30 32 36 36 34 36 35 39 39 39 41 44 42 43 44 46 47 47 46 44
15 19 22 23 23 26 27 29 31 29 31 32 34 37 40 40 38 39 39 39 40 39 40 44 46 46 47 47 50 42 41 50
17 21 23 24 26 29 31 35 35 36 36 37 36 40 39 40 39 38 38 40 43 45 47 48 51 51 50 52 49 47 37 36
18 23 26 28 30 32 35 39 41 42 43 42 44 44 40 34 37 40 43 45 47 49 49 50 52 55 49 47 52 54 56 48
23 27 30 32 34 36 40 41 41 46 50 52 48 43 36 38 40 42 46 48 49 51 51 52 54 56 57 55 54 52 55 59
28 29 31 36 37 41 42 44 41 47 46 45 42 38 42 45 48 53 52 53 54 53 54 54 54 54 52 54 54 53 51 48
28 33 36 38 41 43 48 50 43 42 43 44 44 45 47 51 55 54 53 53 53 53 50 45 44 43 40 40 40 40 45 46
30 35 44 48 47 45 42 43 42 43 45 46 45 47 52 56 56 55 52 50 46 38 38 39 40 40 37 36 36 35 37 42

GFSFLT2_700_spd_003.txt.gz
Wind_Speed
6 6 5 5 5 5 6 5 7 9 10 10 10 11 14 15 15 15 15 16 18 19 19 19 19 19 19 19 17 15 15 17
7 4 3 4 4 6 6 6 7 8 8 8 11 13 15 18 18 19 21 21 22 22 23 23 22 22 22 21 21 20 19 20
4 1 1 4 5 5 4 4 5 7 8 10 12 16 18 21 20 24 26 27 28 27 27 26 26 26 24 24 24 24 23 25
6 3 1 4 6 7 7 6 6 6 8 10 13 15 18 20 23 23 27 28 30 30 30 30 30 30 32 30 28 28 27 28
7 5 4 4 6 7 7 7 6 6 6 8 11 13 16 19 22 25 28 28 27 30 31 30 30 31 31 32 33 32 31 30
10 8 4 4 5 7 7 7 9 8 9 12 15 16 17 18 21 25 26 28 29 28 28 29 28 29 29 30 30 31 33 33
8 9 4 1 2 4 6 9 10 13 14 16 18 21 19 19 22 23 25 26 28 28 29 29 30 29 27 27 28 28 28 31
12 9 5 6 6 10 13 15 14 17 18 20 22 23 21 23 21 21 21 24 26 28 29 28 29 29 30 30 29 31 33 31
15 10 12 11 12 14 17 18 18 18 21 24 24 22 21 22 22 22 24 26 29 31 31 31 30 30 31 33 35 35 34 34
14 14 16 15 17 19 22 24 22 22 24 26 25 24 25 24 22 21 25 29 31 29 30 33 35 37 40 41 41 41 40 40
14 20 16 21 20 22 25 25 23 18 22 24 27 28 29 28 28 27 29 32 34 31 30 32 37 38 41 42 44 47 47 45
12 22 20 24 24 24 25 27 26 26 29 30 30 30 32 33 33 35 36 36 38 36 35 35 35 38 39 38 40 44 51 52
11 21 27 23 24 25 27 27 27 31 31 36 36 37 37 38 37 40 41 42 38 37 36 37 39 39 43 45 46 44 44 47
21 25 24 23 27 31 29 30 31 34 34 39 37 40 39 40 45 46 44 40 38 38 39 41 42 40 43 45 47 47 45 43
19 22 24 26 30 33 34 32 33 36 41 40 42 44 43 45 45 44 40 41 41 41 44 46 48 48 47 45 45 48 47 42
22 26 29 32 33 36 33 37 43 45 46 48 50 47 46 44 42 41 42 44 45 47 49 51 51 55 55 53 50 47 49 53
25 30 34 36 39 37 38 44 43 43 48 49 45 39 42 42 42 43 43 45 50 55 54 54 55 56 56 57 57 57 49 54
30 33 38 37 38 45 50 50 44 41 43 46 45 45 45 47 49 51 52 54 59 57 55 57 57 56 55 52 52 50 50 50
28 29 31 35 41 46 47 46 49 48 47 46 46 47 50 53 55 56 58 59 56 52 45 42 40 41 44 40 39 41 42 43
28 30 36 41 40 41 45 45 43 45 46 46 48 51 54 55 57 59 59 55 46 41 39 40 39 36 36 35 37 38 40 40

GFSFLT2_700_spd_006.txt.gz
Wind_Speed
5 8 10 7 5 3 5 5 5 8 10 10 9 11 14 15 17 19 20 22 22 23 24 25 24 23 22 21 20 21 20 21
9 10 4 3 3 4 5 5 6 7 8 10 11 13 15 16 17 19 21 23 24 26 27 27 27 26 25 24 24 23 22 24
10 5 3 3 2 4 4 5 7 9 9 11 13 13 16 18 17 19 22 23 25 27 28 29 30 30 29 27 26 28 27 26
6 4 2 2 4 2 3 3 3 5 7 9 14 16 17 19 22 22 22 23 24 24 26 26 26 27 30 31 29 29 28 30
9 6 3 2 5 5 4 6 8 7 8 11 14 17 20 22 24 26 28 28 29 27 26 26 25 22 23 24 26 26 27 28
18 8 7 5 4 2 4 6 8 11 13 16 18 22 23 24 23 26 27 25 24 25 26 27 26 24 22 21 21 22 23 26
18 11 10 8 5 4 6 9 12 15 19 21 23 24 25 26 25 25 24 22 21 22 25 27 28 28 29 27 26 26 25 24
19 18 12 10 6 7 10 13 16 19 22 22 22 24 23 22 22 22 20 19 22 26 28 28 28 28 27 29 28 27 29 32
24 19 11 12 9 11 15 17 20 23 25 25 24 23 23 24 24 25 25 25 28 31 31 31 31 32 34 36 38 37 33 30
26 9 15 16 15 13 18 21 22 23 28 24 27 28 30 29 28 28 28 27 29 32 32 33 33 33 32 33 36 38 39 42
10 19 21 22 21 17 20 23 24 25 24 24 32 34 33 33 33 34 34 34 36 37 35 37 36 35 35 34 34 36 38 41
18 22 29 20 20 21 19 22 25 30 32 27 39 32 36 37 38 40 40 41 43 40 39 39 36 36 37 37 36 35 35 38
22 22 25 24 27 26 26 29 33 32 31 33 35 38 42 37 39 43 39 45 45 44 43 40 40 38 39 41 41 40 40 38
19 22 24 22 29 31 28 38 36 34 33 36 41 45 45 49 48 46 46 40 43 42 41 42 43 42 43 46 51 49 45 44
21 23 24 24 30 35 39 37 37 37 40 48 53 55 53 38 41 42 43 41 39 42 43 44 48 47 48 51 52 54 55 52
18 23 25 28 32 34 36 37 39 49 49 39 37 38 40 40 39 40 41 44 44 45 47 50 51 53 55 55 53 55 58 61
24 28 32 32 35 35 40 45 46 47 44 44 43 45 44 42 44 45 48 50 51 50 52 54 56 57 56 57 54 49 46 48
25 26 30 34 36 40 42 41 40 43 50 53 52 49 48 48 50 52 53 53 54 56 57 58 56 53 47 43 43 46 47 46
22 24 26 30 38 42 39 45 51 54 50 50 49 51 51 50 52 51 54 57 57 57 53 47 46 39 38 40 42 40 39 40
29 31 31 34 37 42 47 53 53 49 50 50 53 50 50 50 53 54 56 56 53 52 45 38 36 36 35 35 35 34 37 34

GFSFLT2_700_spd_009.txt.gz
Wind_Speed
4 7 8 8 4 3 3 4 4 5 7 8 9 11 12 14 16 18 20 21 22 23 23 23 24 24 23 22 20 18 19 20
7 7 5 1 2 2 1 2 3 4 6 9 11 11 11 11 14 17 20 22 24 25 26 26 26 26 24 22 20 19 18 22
6 5 3 3 2 2 3 3 4 6 7 8 8 9 11 14 16 18 19 21 22 24 24 24 23 24 23 20 19 18 15 19
9 6 5 2 3 4 3 5 5 5 8 9 12 16 19 22 24 24 24 24 23 22 21 22 21 21 23 23 21 19 17 18
6 5 7 4 4 2 1 3 5 5 8 15 18 19 22 23 23 23 23 23 21 21 21 21 20 20 20 21 23 22 21 20
11 10 8 5 4 4 8 9 11 13 17 18 20 22 23 23 23 25 25 24 23 21 22 23 23 22 22 20 21 22 22 24
16 12 10 8 6 5 7 9 11 15 17 20 24 25 25 25 23 24 23 22 22 21 22 23 24 23 24 25 24 22 23 24
13 9 10 14 9 8 10 11 14 17 19 21 22 25 22 22 22 22 22 23 23 24 25 26 26 28 28 29 28 29 28 27
23 9 7 11 10 13 15 16 18 20 23 23 22 28 26 28 27 24 25 27 29 28 29 31 33 33 34 31 32 30 29 31
23 24 18 14 7 17 21 23 20 23 26 29 33 37 34 34 33 31 33 35 34 34 37 37 36 35 36 34 32 33 33 32
21 23 12 14 19 11 21 20 22 25 25 31 33 35 35 36 35 40 41 41 41 42 39 38 38 36 38 37 34 34 34 34
18 23 20 22 14 21 24 23 26 27 36 41 40 39 40 39 45 48 48 49 44 38 38 37 37 39 41 40 40 39 38 36
25 22 21 20 25 23 25 27 28 39 38 35 34 37 34 48 41 44 47 40 36 37 39 40 40 40 43 45 44 43 43 42
27 23 23 25 27 28 29 29 32 31 29 34 40 44 50 50 43 43 42 43 39 37 39 42 42 42 46 49 52 49 47 46
19 17 17 21 26 27 32 34 33 34 31 35 42 48 44 46 43 42 45 45 44 42 43 44 47 46 47 49 53 55 58 54
15 15 17 22 25 31 32 32 34 37 43 47 45 45 51 49 48 49 49 47 47 47 48 47 47 49 50 50 51 52 56 62
21 25 26 28 28 32 34 37 41 43 44 46 51 52 49 48 47 47 47 47 47 47 48 51 51 51 50 49 47 47 47 48
20 20 24 28 33 38 41 41 42 45 48 53 52 49 48 49 51 45 47 46 48 50 49 50 49 47 45 41 45 43 44 41
23 25 31 33 35 37 41 44 47 49 53 47 49 50 51 47 43 44 45 46 47 49 49 47 48 47 43 39 39 39 37 35
36 37 38 41 41 45 46 45 50 50 56 46 52 51 47 46 46 47 48 49 51 49 45 43 44 40 39 42 40 40 36 37

GFSFLT2_700_spd_012.txt.gz
Wind_Speed
5 4 6 7 4 2 2 3 3 5 7 7 8 10 11 12 15 17 18 20 21 22 22 21 20 18 16 15 14 15 15 13
4 5 5 1 2 1 0 1 2 4 5 7 9 10 10 13 15 16 17 18 20 21 21 20 20 18 16 14 13 12 13 12
5 5 1 1 2 1 1 3 3 5 7 7 9 12 15 18 18 19 19 19 19 19 19 18 16 17 16 14 13 13 13 11
5 3 2 3 2 2 2 5 6 5 6 10 14 18 20 22 22 21 20 19 21 18 17 16 15 14 15 16 15 14 15 12
9 9 6 4 3 1 2 2 4 6 10 13 16 19 21 23 23 23 22 21 20 17 18 19 19 18 16 15 16 18 19 19
8 11 10 8 4 2 4 4 5 8 11 16 18 21 24 26 26 25 25 26 24 21 21 21 21 20 18 19 20 19 19 20
4 2 5 6 6 7 10 9 11 13 14 16 17 21 23 28 27 25 29 31 29 27 27 26 26 24 23 25 26 25 23 23
7 13 11 16 6 8 13 16 19 18 18 18 22 24 25 33 32 31 32 31 31 31 33 33 32 32 33 32 31 28 28 28
10 10 14 16 13 13 14 16 20 25 24 24 25 28 31 36 35 37 35 33 36 36 39 40 39 38 36 35 34 32 30 30
12 15 11 14 12 8 15 14 21 28 27 27 29 36 35 35 34 36 39 41 47 45 43 43 42 42 42 40 37 33 33 33
18 15 12 15 14 15 17 18 20 25 28 29 35 37 33 34 33 38 42 47 40 38 37 39 39 39 39 38 36 35 34 34
16 16 16 13 17 19 17 17 23 26 27 29 33 31 31 30 39 43 47 41 41 40 40 39 42 44 44 42 40 38 38 38
18 20 21 17 17 13 16 22 25 27 30 31 31 29 36 39 41 42 42 47 48 46 45 45 45 44 46 46 45 42 41 41
25 18 15 14 11 14 19 21 25 27 34 34 40 40 42 42 40 46 49 47 45 45 46 47 47 47 48 49 51 48 44 44
12 11 11 12 14 17 20 23 28 29 32 36 37 39 42 46 49 52 49 48 48 47 47 46 48 47 47 48 51 54 55 51
9 12 16 18 19 21 23 27 31 34 36 36 38 43 48 50 50 47 46 47 49 49 47 47 46 47 47 47 47 49 53 59
15 19 22 21 24 25 28 33 36 39 39 41 45 47 50 53 46 45 48 50 45 46 47 47 47 47 47 47 48 49 51 51
19 16 20 26 31 37 41 43 46 49 48 46 50 53 47 55 47 46 43 46 46 45 47 49 50 50 48 46 47 45 48 45
16 24 30 33 38 44 46 47 49 50 48 47 44 48 49 57 44 47 49 50 49 49 50 49 47 46 43 44 44 35 35 40
26 27 29 35 42 45 47 48 43 45 46 47 52 57 55 45 47 53 52 48 46 47 50 52 46 41 40 40 41 41 43 44

GFSFLT2_700_spd_015.txt.gz
Wind_Speed
6 4 4 7 8 4 2 1 3 3 5 8 10 11 13 13 16 16 16 17 17 19 19 18 17 16 15 13 9 8 7 8
3 4 6 5 3 2 2 2 2 4 7 9 11 11 13 14 15 16 17 16 17 19 19 18 19 18 16 14 12 10 7 5
5 5 3 2 1 2 2 3 5 6 7 7 8 11 15 19 20 21 21 21 20 21 20 17 16 17 18 17 14 11 10 9
3 1 1 1 2 2 4 4 4 4 2 6 10 14 17 20 23 23 22 22 22 23 22 21 21 21 20 17 18 18 16 13
6 7 4 3 2 1 3 1 1 1 5 9 13 17 20 22 26 27 27 25 24 25 23 21 22 25 24 22 22 24 24 21
5 5 5 4 3 2 2 4 5 8 12 15 18 20 21 23 23 30 30 28 27 25 25 25 26 27 27 26 27 29 30 28
3 6 10 7 3 6 5 7 7 12 16 20 22 24 24 23 29 30 28 28 28 28 30 32 33 32 33 32 31 33 35 34
3 5 6 11 11 9 10 9 11 16 18 21 23 24 24 28 31 33 31 30 32 34 38 39 38 38 36 36 36 36 37 38
6 4 3 12 16 16 15 13 15 15 18 18 21 23 25 31 32 32 33 34 39 41 43 39 38 40 39 36 35 36 38 40
14 10 6 12 14 15 14 15 18 17 16 18 22 26 32 33 34 33 34 36 44 42 43 40 40 42 40 38 37 38 38 39
22 19 23 14 13 15 11 20 20 18 20 24 27 32 31 30 34 35 36 43 46 47 46 49 48 47 45 43 41 41 41 42
25 22 21 18 21 34 12 18 18 21 24 27 29 34 37 34 38 40 38 47 49 51 52 52 51 52 51 49 46 43 44 45
20 21 20 20 13 7 13 16 21 24 29 28 29 34 35 38 39 45 47 49 50 54 55 54 51 51 52 53 50 47 45 46
19 22 18 10 12 10 15 20 24 24 26 33 38 37 38 42 43 46 49 54 53 54 51 51 50 52 55 56 57 55 51 49
14 9 10 12 12 13 15 17 24 28 31 30 35 39 41 43 48 52 54 55 55 57 53 50 52 50 48 51 54 55 56 52
9 9 10 10 8 11 14 20 26 30 35 38 43 45 46 48 52 51 46 47 54 52 50 49 49 50 48 49 50 54 57 61
16 17 14 13 19 24 29 35 40 43 47 49 49 47 48 51 53 48 51 55 49 50 46 49 50 49 49 49 49 51 57 59
17 15 18 28 33 35 39 42 45 49 52 52 51 47 53 52 52 58 57 49 47 49 49 48 45 42 44 49 53 52 49 46
21 24 27 33 36 40 44 48 51 51 53 51 50 49 50 51 50 50 46 49 48 49 46 43 41 43 46 46 44 47 47 44
24 26 32 36 37 41 47 49 51 51 48 46 46 46 46 45 42 45 53 44 45 39 40 41 42 48 43 37 39 38 38 38

GFSFLT2_700_spd_018.txt.gz
Wind_Speed
9 8 6 4 7 5 3 3 4 4 6 8 8 10 11 14 15 16 16 16 16 19 21 20 20 20 18 16 13 13 10 11
7 4 4 5 4 4 6 6 6 6 7 7 7 8 11 15 17 18 19 19 19 18 19 19 19 20 21 18 14 13 13 12
5 5 3 4 4 6 6 6 7 7 5 4 5 8 12 16 19 20 20 21 20 20 20 19 19 20 21 20 18 15 14 15
7 6 7 5 5 4 6 6 6 4 1 3 8 12 15 16 17 19 22 22 21 20 19 17 18 20 22 22 21 18 17 17
5 5 5 6 6 6 6 4 3 1 4 8 12 15 16 17 17 20 23 21 22 21 20 20 21 23 25 27 28 26 26 25
9 10 6 5 4 6 5 3 3 4 7 10 12 15 17 18 18 23 25 25 24 22 23 26 27 27 26 29 30 31 31 31
6 9 8 8 1 3 4 4 5 7 10 12 16 17 17 18 21 24 25 26 26 27 30 34 34 33 31 31 32 31 31 31
4 6 8 7 5 7 10 9 8 11 15 17 17 16 17 20 24 27 28 28 29 32 35 40 39 38 36 37 34 34 35 35
9 9 9 10 9 10 10 9 7 14 17 17 18 19 21 25 29 31 34 34 33 34 40 45 44 43 43 41 40 40 42 41
13 15 15 14 12 16 16 17 14 16 17 18 20 22 25 28 31 34 35 32 38 42 46 46 49 50 47 46 45 44 45 45
19 21 23 19 18 17 18 30 10 15 17 21 23 25 30 29 32 31 39 38 46 47 50 52 54 54 54 53 48 43 42 42
25 28 25 23 17 16 17 10 8 15 19 22 28 30 27 38 37 37 42 45 48 51 52 53 55 58 55 54 52 47 44 44
27 22 21 14 6 11 11 12 14 18 23 27 27 37 35 37 39 42 46 49 50 51 54 58 58 56 59 58 54 53 52 49
15 14 13 6 8 9 11 13 18 20 25 28 30 32 35 39 42 43 45 49 53 54 55 55 53 57 57 54 57 58 57 55
13 12 13 14 12 10 13 15 18 24 30 33 38 41 45 48 51 53 53 55 55 55 55 55 57 54 50 49 49 52 54 52
14 14 13 10 9 14 20 24 30 35 40 44 47 49 51 52 54 54 54 54 56 59 58 53 50 50 47 42 42 46 47 53
12 12 12 12 21 26 33 36 38 41 46 48 49 51 52 52 51 52 52 51 51 50 51 52 51 47 44 42 41 42 45 50
10 13 15 19 26 32 36 39 41 44 49 49 49 47 46 48 49 49 48 47 47 49 51 48 45 42 44 45 45 46 46 45
18 20 21 24 30 36 37 42 45 44 46 46 45 45 46 47 48 48 48 46 45 47 49 44 45 43 40 41 42 42 42 41
20 23 24 26 32 38 45 44 45 48 47 47 48 49 50 52 52 50 46 45 41 44 39 40 37 35 35 40 39 36 34 34

GFSFLT2_700_spd_021.txt.gz
Wind_Speed
12 11 9 7 7 7 4 5 7 7 8 8 8 9 11 13 14 14 15 15 17 18 18 16 15 16 17 17 16 14 14 13
12 10 8 8 6 5 6 9 9 9 9 7 6 7 9 9 12 15 16 16 16 17 17 17 14 13 14 16 17 17 17 16
10 8 6 6 7 8 8 8 9 9 7 4 3 5 7 8 11 13 16 18 19 20 19 17 16 16 16 16 16 17 19 20
7 7 8 7 8 8 9 10 10 8 4 1 3 5 8 10 11 13 17 20 21 22 19 15 17 19 20 21 22 22 22 22
6 7 7 10 10 11 11 9 7 5 2 4 6 9 11 10 10 13 19 22 23 22 19 18 22 24 25 24 24 24 24 25
10 10 11 11 12 12 12 11 8 6 6 7 9 12 12 12 13 15 20 24 25 27 27 27 28 30 29 29 28 27 27 26
10 9 9 11 13 12 11 10 8 6 9 12 12 12 12 14 16 19 23 25 27 28 28 31 36 37 35 34 35 35 33 32
10 8 9 8 11 12 12 10 7 2 15 20 15 13 14 16 19 24 26 28 30 33 34 35 38 40 40 40 40 41 41 40
10 13 13 13 12 11 11 15 18 26 17 17 14 16 18 20 23 25 30 35 34 37 37 44 43 44 46 46 45 44 46 46
15 14 15 16 20 17 20 21 18 21 8 12 15 17 22 25 29 31 33 39 36 38 39 45 47 49 50 51 51 51 51 49
17 20 20 24 29 16 14 16 15 8 10 14 18 19 25 30 34 31 32 36 40 44 46 49 51 53 55 56 55 52 48 47
20 22 22 24 19 6 7 7 6 7 12 15 21 25 27 30 32 35 37 41 43 46 49 50 53 56 56 54 54 52 51 52
17 16 19 8 6 9 7 9 8 10 15 20 22 25 28 32 35 37 40 42 44 46 45 48 52 55 57 58 58 56 56 56
17 14 13 12 9 9 9 10 13 15 18 22 26 31 35 37 41 44 46 48 49 52 54 56 56 56 57 57 57 56 57 54
6 7 8 9 8 6 10 15 19 22 25 29 33 38 41 42 45 46 48 50 51 53 54 53 53 53 51 51 51 50 50 45
14 12 8 8 6 12 16 21 26 30 34 37 39 40 43 45 46 47 48 49 50 50 51 50 49 49 46 43 39 41 42 45
18 8 8 10 10 16 21 26 31 36 39 39 41 43 43 45 45 45 46 47 48 47 46 45 45 45 44 42 39 40 41 44
9 14 14 13 16 20 24 28 34 38 40 42 42 43 43 45 46 47 46 45 45 45 44 44 43 42 40 38 36 38 40 43
16 18 19 20 22 25 28 32 37 39 41 42 43 44 44 44 45 45 44 44 41 43 46 45 46 42 35 33 35 36 38 39
18 21 24 28 28 28 33 34 39 42 43 44 44 45 45 45 44 44 43 42 43 43 45 39 37 37 36 34 33 38 36 35

GFSFLT2_700_spd_024.txt.gz
Wind_Speed
17 14 12 10 8 7 6 6 8 9 11 9 8 8 7 8 9 10 11 13 14 15 17 17 14 12 12 14 15 14 12 11
15 12 10 10 7 7 8 10 12 13 11 8 6 5 4 4 6 9 10 13 16 18 20 19 17 14 12 14 15 17 17 17
13 11 8 7 9 10 12 13 13 13 9 7 4 1 1 4 6 8 10 13 16 19 20 19 17 17 17 17 18 19 19 20
10 9 10 10 10 12 12 13 14 14 11 8 5 4 4 5 6 10 13 15 17 21 22 20 18 19 23 22 19 20 20 21
11 10 11 11 12 14 16 16 15 13 10 8 6 7 8 8 9 11 14 18 21 24 25 26 25 23 26 23 20 20 22 24
10 12 13 14 15 16 16 17 14 12 9 8 10 11 11 11 12 13 15 18 21 25 28 28 31 29 30 30 29 27 28 29
11 11 11 13 15 16 15 14 12 8 6 11 17 14 13 14 14 15 18 20 22 27 30 35 32 31 34 36 37 36 34 34
10 10 10 11 13 13 13 13 9 12 7 9 22 22 20 15 18 21 23 28 31 31 34 33 36 37 40 43 43 44 44 42
11 11 12 13 16 18 17 16 1 12 27 34 20 21 13 16 19 23 28 32 31 33 34 37 41 43 45 47 47 48 48 49
13 15 16 21 23 23 23 25 21 11 13 17 15 11 14 17 24 29 32 33 31 36 39 41 45 47 48 49 48 48 48 49
16 18 21 26 25 23 27 11 11 9 12 13 14 17 21 25 27 30 33 37 39 41 43 46 45 48 48 47 48 48 47 47
15 17 21 19 18 5 9 7 6 5 7 12 17 21 23 27 31 35 37 38 40 41 43 44 45 50 50 50 52 53 54 51
16 16 14 12 11 7 5 4 5 6 9 13 16 21 25 29 33 35 36 40 41 44 45 47 48 50 50 51 51 51 52 51
17 13 8 7 7 8 5 3 5 9 12 16 21 25 29 32 35 38 39 40 44 45 46 48 48 52 53 51 50 45 34 36
7 4 9 8 10 7 4 4 8 13 17 23 27 31 33 36 37 38 41 43 43 46 47 48 47 46 50 48 47 43 46 45
9 11 8 7 6 5 7 11 16 20 24 29 33 33 36 38 39 40 41 42 44 45 46 46 47 44 45 43 44 44 42 40
10 8 7 10 9 10 14 18 22 26 28 31 34 35 36 38 39 41 43 43 44 44 44 45 42 43 42 42 40 35 28 24
6 11 13 13 13 16 19 24 28 32 33 35 35 37 39 40 42 41 41 41 43 42 41 37 41 41 41 36 29 26 25 26
10 12 15 17 20 23 27 31 27 32 36 34 36 38 39 39 40 40 40 41 40 41 39 38 37 36 33 31 28 24 24 28
12 15 19 22 26 28 32 28 33 36 34 34 37 40 41 40 39 39 39 40 39 38 36 35 31 31 29 27 26 25 28 26

GFSFLT2_700_spd_027.txt.gz
Wind_Speed
18 19 17 16 13 9 7 6 8 9 11 9 8 7 5 4 5 6 8 10 13 16 18 19 18 16 15 15 14 13 12 14
19 15 14 12 10 8 8 9 10 12 12 9 8 5 1 3 5 7 9 11 13 16 18 18 17 15 16 19 21 18 14 10
16 15 13 11 11 10 10 11 13 14 12 9 6 3 1 4 7 9 10 12 15 17 18 19 21 22 21 20 22 20 19 16
14 12 10 9 7 9 11 14 15 16 13 10 7 4 4 6 9 11 13 15 17 18 19 21 23 22 26 25 23 21 23 23
10 8 8 9 11 13 15 15 16 15 13 11 9 8 8 9 11 12 14 15 18 21 26 25 27 25 29 27 26 26 26 27
8 10 12 12 13 14 15 13 16 14 13 10 11 12 12 12 12 14 16 19 21 24 26 33 32 31 30 29 30 32 33 33
9 9 9 10 11 12 15 12 12 11 10 13 16 16 16 18 14 14 17 21 24 28 32 32 32 33 36 37 39 39 40 41
7 7 8 10 13 13 15 16 13 8 15 19 17 6 24 27 27 22 15 19 26 31 32 30 34 38 41 42 43 44 43 43
6 6 9 11 13 17 18 17 7 13 10 25 35 36 39 27 15 17 22 25 28 32 36 39 40 43 44 45 45 45 45 45
9 11 13 16 18 21 18 18 21 24 24 22 20 23 26 15 22 26 26 30 35 37 39 40 42 42 44 46 47 46 47 46
14 16 16 19 20 19 18 6 13 17 19 16 16 14 17 20 23 26 29 33 37 38 39 42 44 45 45 48 47 47 47 48
17 17 16 19 20 8 6 5 11 11 8 7 10 14 17 22 24 27 30 35 38 40 41 42 44 47 49 49 46 46 46 47
18 18 18 17 14 10 7 6 9 7 7 9 13 16 19 22 27 30 33 35 39 41 43 43 45 46 48 49 48 45 43 37
19 20 17 13 12 11 9 9 10 9 12 14 15 19 22 26 28 33 37 38 39 42 44 44 43 44 45 49 50 46 40 27
13 13 12 12 12 9 11 13 13 13 15 18 20 25 28 31 34 35 37 39 40 42 43 44 42 44 43 44 45 43 45 40
11 10 11 10 9 12 13 11 10 16 19 23 29 29 32 34 36 38 38 38 39 40 39 43 43 43 43 39 39 39 36 39
9 9 9 9 12 13 14 18 19 22 24 24 30 34 36 36 37 39 39 39 39 41 42 41 40 41 41 37 33 27 26 28
10 10 11 13 15 17 19 21 25 30 35 25 28 33 35 37 37 37 38 39 41 40 41 40 40 39 34 27 25 25 24 24
12 12 13 15 16 19 22 27 30 34 31 36 37 34 36 37 36 36 37 37 37 39 39 31 35 30 27 27 31 28 24 25
15 15 16 17 21 24 26 27 33 31 31 35 34 36 37 37 37 39 40 40 40 38 37 34 26 29 33 32 31 28 26 27

GFSFLT2_700_spd_030.txt.gz
Wind_Speed
26 28 20 8 14 11 9 5 7 10 12 10 9 8 7 5 5 5 6 9 11 13 14 15 15 14 14 15 16 14 12 13
30 19 15 13 14 12 9 6 9 10 12 11 9 7 3 1 3 5 7 8 9 12 13 16 17 21 19 17 18 18 17 17
23 22 16 14 14 10 7 8 10 12 12 10 9 7 4 3 4 7 10 10 12 14 17 18 20 23 25 22 23 18 19 23
8 10 14 12 10 9 9 10 13 15 13 12 10 5 6 6 8 11 11 12 15 16 17 19 24 27 26 26 25 22 22 25
9 9 10 9 9 10 11 12 15 16 14 9 6 7 9 10 12 12 13 15 18 20 22 26 28 30 28 25 24 27 29 30
6 5 6 5 8 10 11 15 15 14 12 11 10 14 13 13 16 18 24 15 18 19 22 27 29 28 30 32 32 34 35 35
6 7 7 8 9 11 14 13 12 13 10 12 17 19 19 17 16 21 25 22 21 18 24 27 29 31 34 37 37 38 38 38
5 4 6 9 10 12 12 13 14 8 7 17 20 22 23 16 17 21 20 23 20 21 23 28 31 34 36 38 40 41 42 41
3 3 4 3 5 7 12 12 8 17 21 23 20 21 25 30 35 30 20 25 21 25 28 31 34 37 38 40 41 43 43 43
4 5 5 8 8 9 14 18 19 25 27 30 31 27 24 19 17 17 19 23 25 27 31 34 37 39 40 42 44 43 42 43
8 10 9 9 13 12 14 12 14 19 22 21 24 21 17 14 15 18 21 26 30 33 36 38 39 40 41 42 44 43 41 41
12 12 13 13 14 13 9 10 13 16 16 15 12 12 13 17 19 21 23 28 33 36 38 38 38 40 41 42 42 42 41 41
11 13 14 16 16 14 12 13 13 12 9 11 14 13 16 19 24 27 30 32 36 38 39 39 39 39 40 40 40 41 40 40
18 19 18 18 16 15 14 14 13 11 12 14 14 15 18 23 25 27 32 34 36 37 37 39 38 38 40 42 44 45 45 45
23 18 15 13 15 14 13 13 11 14 17 17 16 20 22 26 27 30 32 35 35 36 36 38 38 38 38 42 45 47 49 46
18 14 14 16 15 13 11 12 17 20 22 22 24 26 23 27 30 32 33 34 35 35 35 37 38 40 40 39 39 43 45 49
16 15 17 13 13 14 12 20 22 22 24 27 29 33 34 32 33 34 36 37 36 37 38 39 40 40 41 40 39 39 38 37
17 16 16 12 15 16 17 19 21 24 27 29 32 33 35 34 34 34 35 37 37 36 38 40 39 40 36 35 28 33 34 32
16 17 16 16 16 17 19 21 25 28 28 33 37 32 35 33 34 34 36 37 37 36 37 37 36 36 30 30 32 37 34 30
18 20 21 19 18 19 21 25 29 32 33 36 35 32 33 34 33 35 36 37 37 36 39 39 35 32 30 33 35 33 30 27

GFSFLT2_700_spd_033.txt.gz
Wind_Speed
35 29 29 22 22 18 13 10 10 13 14 13 11 10 8 6 4 3 2 3 4 6 7 9 11 13 15 13 13 17 17 17
23 29 26 18 14 10 9 7 10 13 14 13 12 10 5 1 2 3 6 8 8 9 10 10 11 13 16 18 18 18 18 18
24 23 19 18 13 8 7 7 12 14 14 13 10 6 5 4 4 8 10 11 12 13 14 14 15 19 21 21 15 14 20 20
18 21 13 14 12 11 7 7 10 12 13 12 10 7 7 8 8 13 15 13 14 16 17 15 16 21 20 16 16 17 19 22
21 18 13 11 10 8 7 10 13 12 13 10 10 13 13 12 11 14 13 19 22 26 24 23 22 24 26 25 23 23 24 28
13 13 10 8 6 6 8 9 10 10 10 11 13 16 15 15 15 14 21 19 20 23 28 24 23 25 28 29 31 31 31 31
8 8 6 3 2 3 3 3 7 10 12 14 14 17 17 16 19 19 18 19 22 21 16 22 22 24 27 28 29 31 32 34
7 6 3 4 3 3 3 4 7 9 14 15 16 19 20 19 21 22 28 27 19 21 20 23 23 27 30 31 33 33 33 34
8 6 7 5 5 3 4 5 10 14 18 19 24 21 19 19 20 24 26 20 17 21 23 25 28 31 34 35 36 36 35 36
5 5 4 2 1 3 7 10 10 16 21 25 26 24 28 31 24 18 16 19 20 23 26 30 34 37 37 37 37 36 35 35
3 1 2 4 5 7 7 6 11 18 24 29 32 33 23 22 26 21 21 22 25 27 31 35 37 37 36 34 34 34 33 34
5 4 8 9 10 11 10 9 11 14 17 19 19 21 20 18 20 18 21 25 28 29 31 35 35 34 33 33 34 34 34 37
6 8 12 12 15 16 11 11 14 15 16 16 18 19 18 18 19 20 24 25 27 31 34 35 34 33 33 34 34 34 37 39
14 14 16 16 17 17 12 13 16 14 16 17 18 17 18 18 24 24 24 26 30 32 35 35 34 34 35 36 36 36 37 40
20 17 19 20 16 15 16 17 15 15 19 18 20 20 21 24 27 25 31 28 30 32 34 34 35 35 34 36 40 42 44 43
21 22 20 18 16 17 16 14 17 18 17 17 18 23 27 28 27 30 32 32 33 33 32 34 36 36 35 35 36 40 43 46
23 24 19 17 16 17 17 17 19 16 18 17 19 25 27 31 32 33 35 35 35 34 34 36 37 37 38 39 39 39 41 41
22 21 20 17 17 18 19 18 20 20 22 24 28 30 33 37 35 32 35 35 35 34 35 37 37 37 38 38 37 37 39 39
23 23 19 17 17 17 19 20 21 23 26 30 31 34 38 40 37 31 35 34 34 36 37 37 35 36 36 36 36 34 36 37
22 22 20 18 17 18 21 22 24 26 30 33 35 37 41 52 40 32 34 33 34 35 36 36 37 37 35 34 34 31 32 34

GFSFLT2_700_spd_036.txt.gz
Wind_Speed
40 42 41 41 37 29 22 14 13 14 15 14 12 11 9 8 6 3 2 4 4 5 6 5 5 7 11 17 17 16 15 15
36 37 42 31 23 24 11 12 14 16 15 13 12 11 9 8 6 4 6 7 7 6 7 10 9 9 11 16 20 18 17 17
22 27 20 29 25 17 12 12 15 17 16 13 10 10 10 8 7 8 9 10 10 13 16 16 15 15 15 16 19 18 18 20
24 28 25 21 17 12 10 11 14 15 14 13 14 13 12 11 11 10 12 13 14 15 15 14 14 18 17 18 17 20 22 22
23 21 21 16 14 11 9 11 13 15 15 14 15 15 14 12 13 12 14 14 18 15 18 23 21 20 22 22 21 22 25 27
21 20 18 16 12 9 7 8 11 14 16 17 16 13 13 14 15 15 17 19 21 21 26 21 20 21 23 24 25 26 27 28
19 16 15 11 7 5 5 8 11 12 14 15 13 15 13 12 15 18 20 22 26 26 22 19 19 22 24 27 30 29 28 28
22 18 16 11 9 8 4 2 6 10 13 12 15 15 13 14 16 20 22 23 25 21 17 18 20 23 28 31 32 31 32 30
17 17 15 12 9 8 4 2 1 6 9 12 17 19 18 16 21 27 25 20 17 18 19 22 24 29 32 34 35 34 33 33
13 12 9 8 5 3 3 3 5 7 11 16 19 24 24 22 28 25 19 21 21 21 23 25 29 32 34 36 37 36 34 32
7 5 3 1 2 3 3 4 6 8 13 19 22 26 29 30 28 23 24 23 24 25 28 31 31 33 36 37 36 36 35 33
6 4 3 4 6 5 7 9 8 10 14 18 19 19 20 21 22 22 22 24 25 28 30 32 34 35 36 35 35 36 37 35
6 6 6 8 9 9 10 10 13 13 17 18 19 20 20 21 23 22 23 26 27 29 33 34 34 36 36 35 36 37 38 37
10 10 10 13 13 13 13 12 15 17 18 19 19 19 21 23 23 24 26 32 30 34 34 35 36 36 36 37 38 38 39 39
13 13 15 17 17 18 16 15 16 16 17 17 18 21 24 26 24 26 31 30 32 35 35 37 36 36 37 37 39 40 41 41
17 16 16 20 23 20 17 16 17 17 17 17 19 21 24 25 28 29 27 31 35 35 38 38 40 37 37 38 39 41 42 46
19 22 23 26 24 18 17 16 18 18 17 17 19 22 24 24 28 31 35 40 42 35 39 39 41 39 39 39 39 39 40 42
22 25 27 26 21 18 16 15 16 16 16 17 22 24 27 31 30 35 35 46 35 32 37 41 41 39 40 39 40 41 41 41
21 25 29 24 19 18 17 16 15 16 19 23 27 30 33 30 37 45 31 46 35 35 39 40 40 42 39 38 39 39 38 38
25 24 22 19 18 19 21 20 20 23 27 30 32 31 37 42 39 39 43 46 38 39 39 39 40 40 38 37 37 36 36 36

GFSFLT2_700_spd_042.txt.gz
Wind_Speed
43 43 40 35 32 26 24 22 18 17 16 16 15 14 12 11 8 6 3 2 8 8 8 11 11 10 13 14 14 15 16 16
36 41 38 43 37 28 22 19 20 18 17 17 16 15 13 10 7 3 3 8 8 9 10 9 10 11 13 13 13 14 15 17
28 41 36 40 36 32 31 29 27 19 19 18 17 15 12 9 4 2 3 5 8 10 14 15 14 15 12 11 12 13 13 16
19 37 39 39 41 35 25 28 19 19 19 18 16 12 8 5 4 4 5 8 11 14 16 20 19 16 14 13 13 15 19 21
23 21 27 28 22 27 25 21 20 20 18 16 12 10 9 8 5 6 9 11 12 13 16 15 14 13 12 16 18 20 23 25
20 25 40 35 31 22 19 18 18 17 15 15 14 12 10 8 9 10 12 13 14 17 15 12 13 14 15 18 21 25 27 28
36 38 33 29 26 21 17 17 17 16 14 12 11 11 11 10 12 11 13 15 19 17 14 14 14 18 21 24 26 28 29 30
21 22 22 20 17 16 14 12 12 13 13 13 12 12 12 13 14 14 16 19 20 16 16 18 19 22 26 28 29 30 32 34
18 18 19 17 16 14 13 11 10 11 11 12 13 13 13 14 15 17 20 20 17 16 18 19 21 25 29 32 33 34 36 37
20 20 19 17 15 13 11 10 8 9 11 11 13 13 13 14 18 18 17 15 15 15 16 19 23 27 31 34 37 37 38 40
17 17 15 14 13 12 10 9 7 6 8 11 11 10 12 17 16 15 14 14 14 15 17 21 26 31 35 36 39 39 39 41
14 13 11 9 8 6 6 6 6 5 7 10 11 12 15 19 18 16 13 14 16 18 21 27 32 35 37 39 40 42 44 44
8 7 5 4 4 3 1 1 5 6 9 12 13 15 17 20 17 15 15 16 19 22 26 31 34 37 40 42 42 44 47 48
6 5 4 4 3 3 4 7 8 9 11 12 13 16 19 20 18 18 18 19 23 27 32 36 39 42 39 41 42 41 42 45
7 7 7 7 7 9 9 10 10 11 9 12 14 17 19 20 19 20 21 24 29 32 36 39 37 37 42 44 42 39 41 44
8 9 11 11 12 12 12 13 13 13 13 15 17 18 19 19 20 21 24 29 32 34 36 38 45 46 47 48 46 43 46 50
7 10 13 13 14 16 16 16 15 16 18 18 18 19 20 21 22 25 28 32 36 39 44 38 43 47 48 45 41 48 49 47
12 13 11 14 18 18 18 17 18 20 22 21 20 22 24 25 27 30 34 38 41 43 41 46 39 47 46 43 49 44 43 47
13 15 13 14 15 18 18 19 20 19 21 24 25 26 28 30 33 36 39 40 47 42 41 47 45 47 42 49 45 44 47 48
15 17 16 16 18 19 20 19 18 20 22 25 26 28 31 34 36 37 44 45 44 45 42 45 47 49 49 41 42 44 46 44

GFSFLT2_700_spd_045.txt.gz
Wind_Speed
35 43 47 36 31 34 21 24 23 20 16 14 10 12 12 10 9 7 7 7 7 8 9 11 10 10 12 13 12 11 12 13
29 37 36 33 31 30 31 28 24 20 16 15 18 14 11 9 6 6 5 4 5 8 10 10 11 11 11 10 11 12 12 13
35 32 41 39 31 33 35 31 25 18 18 19 15 12 10 8 4 2 1 4 8 8 9 11 14 13 11 10 10 10 12 15
30 34 34 26 36 38 40 37 33 21 18 18 15 12 10 8 6 1 4 6 7 8 10 14 13 11 9 8 10 12 14 15
18 22 26 39 45 41 34 27 35 23 21 17 13 11 10 7 4 5 6 8 10 11 14 15 11 10 10 11 13 16 18 20
11 18 24 38 36 23 29 23 18 19 18 16 14 12 9 7 7 7 8 9 10 16 16 12 12 11 11 14 17 20 22 24
21 33 34 39 35 35 29 21 19 19 19 17 15 11 9 10 10 9 10 10 14 17 13 12 12 13 16 19 21 24 26 28
38 35 34 35 30 26 22 21 20 20 18 15 12 12 11 11 10 12 13 15 17 15 12 12 13 15 17 21 24 27 29 30
22 23 22 22 21 19 18 18 18 17 15 14 13 12 12 10 12 13 16 17 13 13 12 12 15 18 21 25 28 29 29 30
15 17 17 17 16 15 16 16 16 15 15 14 13 12 11 10 11 11 11 12 12 13 13 14 17 22 26 30 31 32 30 30
15 15 15 14 15 15 15 15 14 14 14 14 13 12 12 11 10 11 12 14 11 12 15 17 21 25 29 31 33 34 35 37
16 15 14 14 14 13 13 12 12 11 11 10 11 12 11 12 13 14 14 12 13 14 17 20 24 27 30 34 38 33 35 40
14 13 12 11 10 8 8 8 8 8 8 9 11 11 12 15 16 15 14 14 16 17 21 23 25 28 31 34 39 39 41 46
12 11 10 10 9 9 8 8 7 8 9 8 9 10 14 15 16 16 16 17 19 22 23 26 28 32 34 41 42 39 44 45
10 9 10 11 11 10 8 6 8 10 9 9 11 14 16 15 16 17 19 20 22 23 25 29 33 38 42 39 39 42 46 36
13 13 13 13 14 13 10 9 10 12 15 16 17 18 17 16 18 19 21 23 24 27 31 34 36 41 41 37 40 44 38 44
11 13 14 13 16 16 13 13 14 14 19 20 22 22 19 19 21 22 24 26 28 32 35 39 43 42 37 40 39 39 41 45
14 11 13 15 16 17 15 15 16 19 20 23 23 25 23 22 24 26 28 32 34 36 41 42 43 38 46 39 38 41 42 42
15 15 14 14 14 15 16 18 19 22 24 24 25 25 25 24 29 30 30 34 38 39 47 39 45 41 38 42 41 45 39 42
18 18 17 17 18 18 19 20 22 24 25 25 24 25 25 27 31 31 30 32 41 35 36 37 39 42 40 38 42 40 41 42

GFSFLT2_700_spd_048.txt.gz
Wind_Speed
38 35 36 38 38 33 28 24 20 19 20 21 20 18 14 14 13 11 9 8 9 9 8 8 9 10 9 8 8 8 9 9
27 26 33 39 39 35 30 27 25 23 23 22 21 18 14 14 12 9 7 7 6 6 7 10 11 11 10 8 8 8 11 12
30 27 30 49 43 41 27 28 26 28 25 21 17 15 14 13 10 7 5 4 4 6 9 12 12 10 7 6 7 9 11 13
26 32 34 37 37 34 34 31 32 29 27 18 15 14 14 11 8 4 2 2 5 7 10 12 9 7 5 7 8 10 12 14
29 43 31 43 31 44 41 36 33 35 20 18 17 15 13 10 6 4 0 3 6 7 11 11 7 7 6 7 9 10 12 15
25 18 23 20 30 35 45 44 33 32 21 19 16 14 11 8 6 4 4 6 7 9 11 10 7 7 7 8 10 14 18 20
19 14 18 28 31 40 37 27 27 19 20 20 18 15 11 9 7 6 8 9 9 13 14 11 9 8 9 11 15 19 22 23
16 11 17 20 20 31 37 29 27 22 22 21 18 16 13 11 9 10 11 11 14 16 15 11 10 10 12 15 20 23 24 26
30 34 34 25 21 29 27 20 21 21 23 21 18 15 12 12 12 10 12 15 17 15 13 11 11 13 15 18 22 24 27 26
25 21 23 25 29 23 21 21 22 23 20 19 17 15 13 12 12 12 14 13 13 14 13 12 14 15 17 20 23 25 26 24
19 20 19 20 20 19 18 19 19 19 19 20 17 15 15 15 15 12 11 13 14 14 13 13 16 18 20 22 25 26 31 32
14 14 16 17 17 16 16 17 18 19 20 19 18 17 16 16 16 15 14 13 15 14 14 15 18 20 23 25 27 30 36 32
13 14 14 13 13 14 13 13 13 13 14 15 16 16 16 17 17 17 15 14 15 15 16 18 20 22 25 29 34 36 33 31
15 15 14 14 13 13 13 12 13 14 15 15 16 17 17 18 17 17 15 16 17 18 19 21 24 25 26 31 37 45 42 40
15 15 14 15 15 16 16 16 15 15 13 14 15 17 17 18 17 16 16 19 20 21 22 23 27 27 29 32 38 39 38 42
17 17 17 16 17 16 15 14 12 12 14 16 18 19 20 21 18 18 19 21 23 24 24 26 29 33 36 37 37 38 41 34
16 17 17 17 17 18 18 17 16 18 18 20 22 24 26 24 21 22 22 24 26 26 27 31 34 35 41 46 38 39 33 32
17 18 18 20 20 18 19 19 19 19 20 24 25 26 27 28 27 26 26 26 27 26 29 34 39 42 39 39 33 36 33 34
21 20 17 17 18 19 18 22 23 22 24 25 27 28 29 27 26 27 28 29 29 30 34 31 38 38 34 32 31 34 37 36
23 22 20 19 17 17 20 21 23 24 26 28 29 29 29 27 27 26 30 31 29 35 34 42 35 31 37 43 38 36 39 38

GFSFLT2_700_spd_054.txt.gz
Wind_Speed
19 21 31 31 31 29 26 24 22 21 18 20 21 21 20 21 20 17 15 12 10 8 8 8 7 6 5 5 6 4 5 8
16 21 18 25 30 32 31 29 27 24 22 23 23 23 22 21 19 16 13 11 8 7 6 7 7 6 5 5 3 2 5 7
14 16 19 25 21 25 30 27 25 25 28 28 26 25 25 20 17 15 11 8 6 4 5 7 7 4 4 4 2 3 7 7
14 15 20 26 20 18 24 36 31 33 33 28 28 29 23 19 17 14 11 6 3 2 5 7 5 3 1 1 2 4 5 7
10 17 17 26 25 29 33 42 45 36 34 34 31 26 23 19 16 11 8 5 2 1 4 7 7 4 1 2 3 5 8 10
16 18 23 32 31 31 35 42 42 46 36 36 29 25 24 18 12 10 6 4 3 4 6 9 9 5 3 4 5 7 11 10
20 18 19 30 30 34 40 37 39 37 40 37 34 19 18 15 13 8 7 6 5 8 10 10 9 6 5 6 6 9 12 11
21 20 25 34 27 35 31 27 39 40 42 33 26 21 18 14 11 9 9 6 7 10 11 13 9 7 8 8 9 10 11 13
17 19 14 21 27 15 22 34 43 46 32 26 25 26 19 14 12 11 9 9 11 13 12 12 11 11 9 11 11 12 11 13
9 12 19 23 12 15 29 23 38 30 25 25 26 21 17 16 14 12 11 11 13 13 13 14 15 14 12 13 15 14 14 16
19 17 17 17 21 18 30 31 33 26 26 26 24 22 20 16 15 14 14 14 13 13 15 16 16 16 16 17 17 18 18 20
15 21 28 31 30 30 30 24 22 23 25 24 22 20 17 17 17 17 17 17 17 16 17 18 19 18 18 22 20 19 23 25
16 16 17 18 19 19 21 22 21 20 20 19 19 18 18 19 20 20 18 21 21 19 19 21 19 20 21 24 27 25 26 28
15 16 14 15 15 15 15 16 16 17 17 21 19 19 19 20 21 21 18 24 22 22 22 22 22 22 23 26 28 32 33 31
13 14 14 14 14 16 16 18 18 18 17 17 18 17 17 18 20 23 21 23 25 25 24 25 24 26 23 26 29 29 32 37
14 14 14 14 15 15 17 16 15 14 16 15 16 15 17 19 20 23 24 23 27 27 28 28 26 28 29 28 30 30 34 38
13 14 14 14 16 15 15 14 15 15 15 16 16 14 17 19 20 23 24 27 29 30 30 30 29 28 33 36 31 33 38 37
17 17 16 17 16 17 17 17 17 18 18 18 19 17 18 21 23 26 26 27 30 32 34 35 34 35 33 37 37 36 36 42
19 19 18 19 19 19 19 21 21 21 22 24 23 21 21 22 25 26 27 29 31 32 36 36 39 38 39 36 31 36 43 47
23 21 21 22 22 23 16 14 25 30 27 23 26 25 24 27 27 28 28 30 29 35 38 37 33 33 37 36 36 41 47 45

GFSFLT2_700_spd_057.txt.gz
Wind_Speed
14 20 24 23 25 28 27 25 22 22 21 21 22 22 22 24 23 20 18 15 13 11 10 9 7 6 4 3 8 10 8 6
16 19 25 28 31 29 27 24 21 23 24 24 24 23 24 25 22 20 17 14 12 10 9 7 7 6 5 2 8 7 6 7
13 14 19 22 19 16 18 28 26 26 23 25 27 27 27 25 23 20 16 13 11 9 8 8 6 7 5 1 6 4 3 4
19 22 20 26 20 14 14 36 34 27 30 31 32 31 28 24 21 17 15 11 9 8 7 7 6 4 4 1 2 3 2 4
20 20 17 19 29 19 15 32 33 37 36 35 32 33 28 21 18 16 12 9 7 5 4 5 3 3 3 2 3 0 4 6
19 17 18 28 21 28 26 26 34 39 39 36 34 30 27 23 17 15 10 7 4 1 2 4 3 1 2 4 5 3 5 7
25 20 21 29 25 36 31 28 39 42 44 46 40 35 25 22 17 13 9 5 3 1 4 5 5 2 5 5 7 7 7 7
16 27 17 21 23 27 27 37 43 49 48 42 35 34 29 20 19 13 9 6 6 4 6 7 5 5 6 7 9 11 8 8
11 19 28 18 27 30 29 31 32 41 44 41 33 27 23 23 16 11 9 10 8 6 9 8 6 6 7 9 10 10 13 10
16 19 19 13 19 16 27 30 30 30 37 34 34 28 28 19 16 14 11 8 9 8 10 10 10 8 7 11 12 12 14 17
12 13 15 16 9 16 18 17 29 32 31 35 32 30 23 20 17 14 13 10 12 11 12 13 13 12 12 12 13 14 16 17
16 18 15 8 10 14 17 20 20 31 34 34 30 24 23 20 19 16 15 14 14 15 15 15 16 16 16 16 16 18 19 21
10 15 23 23 29 30 30 33 34 37 33 31 29 26 24 22 20 17 16 16 17 18 18 17 18 19 21 19 21 23 23 25
11 11 16 16 19 20 19 22 24 26 26 26 27 27 25 22 20 18 15 18 20 19 19 20 21 21 22 24 27 28 27 28
10 11 14 15 16 17 19 21 21 22 23 24 25 22 21 20 18 18 16 19 21 22 22 23 25 25 24 27 30 32 32 30
10 11 11 13 14 15 13 14 15 14 14 14 17 17 17 17 19 20 17 18 23 22 23 25 27 28 30 30 34 37 33 34
10 12 11 11 12 12 14 14 14 14 14 15 16 17 16 17 17 20 20 18 19 23 25 25 28 34 35 38 34 37 33 36
16 15 14 14 13 13 12 13 14 15 16 17 17 16 15 16 18 17 19 21 22 24 25 29 31 31 36 36 38 44 40 35
19 19 18 18 16 17 15 12 9 14 15 19 22 20 18 16 18 21 21 21 22 24 26 26 38 27 33 35 39 45 39 37
21 21 20 20 19 20 19 17 15 10 22 25 26 25 22 20 22 22 24 22 25 27 28 28 31 32 36 32 30 38 36 35

GFSFLT2_700_spd_060.txt.gz
Wind_Speed
16 23 26 25 21 31 19 25 26 25 22 22 24 24 25 26 25 23 20 18 15 11 7 3 3 8 12 12 8 8 7 5
14 16 21 24 17 18 34 26 26 24 22 24 26 27 27 27 26 23 20 18 14 11 8 5 1 5 10 11 9 7 6 4
18 16 16 18 20 26 24 26 26 29 28 28 28 28 30 28 25 23 21 17 13 10 7 6 4 3 7 7 6 5 3 4
18 21 19 15 22 13 10 16 31 29 28 28 30 31 30 29 27 24 19 15 12 10 8 6 3 1 5 4 3 2 2 2
18 24 21 18 22 20 15 20 31 35 34 33 33 32 32 29 26 19 17 15 12 9 6 5 2 2 2 4 2 1 3 4
18 20 22 20 17 24 22 18 33 39 35 36 35 35 33 29 25 23 18 15 11 8 5 2 2 5 6 4 3 3 4 3
25 26 20 21 23 32 24 25 29 34 38 37 36 39 42 40 29 22 16 12 9 5 3 1 3 5 5 5 5 5 5 5
19 23 18 20 19 23 21 27 38 36 41 39 42 41 38 32 26 18 18 12 7 4 2 3 4 3 5 8 7 8 8 6
24 23 16 19 20 32 28 31 34 45 45 46 43 38 29 31 22 22 15 12 9 6 4 4 4 5 7 8 10 10 10 9
18 17 16 24 15 16 29 32 39 42 45 45 41 36 33 29 27 24 17 12 10 10 5 4 4 6 9 11 11 11 12 13
20 16 18 17 19 20 25 30 35 39 44 41 41 35 34 33 24 21 16 15 13 9 7 7 6 7 10 10 12 14 16 16
6 21 18 17 21 20 25 31 42 36 29 37 36 39 32 37 25 22 19 16 13 11 10 11 10 12 12 13 14 15 19 20
12 14 22 19 18 22 29 23 33 33 32 33 39 37 37 30 24 20 18 16 15 14 13 13 14 17 17 17 19 20 21 23
13 16 17 20 19 21 25 25 30 26 31 40 39 32 35 29 24 24 21 19 19 16 16 15 17 20 23 23 25 27 25 24
9 12 13 14 21 24 26 27 31 34 38 36 33 37 33 28 25 25 22 20 18 18 18 17 19 22 25 27 30 31 28 27
6 8 9 12 13 17 19 22 23 24 26 27 30 30 28 27 26 25 22 19 17 18 19 19 20 23 26 29 32 32 33 33
9 10 10 10 10 12 14 15 15 17 20 22 26 27 25 27 26 24 20 19 17 20 20 20 23 25 26 31 37 32 33 35
16 14 13 13 13 13 13 13 15 17 18 20 21 21 22 24 23 22 21 19 18 19 20 22 25 28 27 34 36 31 29 33
19 17 16 15 16 16 15 14 17 16 17 19 21 20 19 17 18 20 21 21 22 21 19 24 27 27 29 28 35 26 36 31
23 21 19 18 18 17 17 18 19 14 16 23 21 21 18 19 22 24 25 28 25 21 18 23 24 28 28 32 26 35 29 32

GFSFLT2_700_spd_063.txt.gz
Wind_Speed
22 16 22 30 39 39 35 29 37 29 27 27 25 25 24 24 24 22 19 17 15 14 10 8 9 9 7 8 8 7 7 5
21 28 18 19 24 22 20 26 42 29 28 28 29 27 28 28 26 23 19 16 13 12 11 9 9 12 10 9 9 7 6 4
10 20 17 18 15 25 19 31 34 33 29 30 30 30 30 29 26 24 21 16 11 10 9 9 9 11 10 8 8 6 4 3
16 19 19 18 9 7 19 23 32 37 36 37 32 31 31 30 27 24 21 17 12 9 8 7 8 8 9 8 6 6 3 3
17 19 21 18 13 8 9 12 18 25 27 28 31 32 33 31 29 26 21 17 11 9 8 6 5 5 6 6 4 3 1 2
16 19 20 18 15 19 12 18 16 24 30 36 33 33 32 30 28 26 22 18 15 10 6 4 3 3 4 4 3 2 1 1
19 23 18 19 14 15 22 20 19 30 35 35 37 37 35 33 30 23 20 17 15 9 5 3 2 5 7 5 4 3 3 2
20 22 19 14 16 15 22 21 27 37 39 35 37 36 37 33 29 28 22 17 12 9 6 5 4 6 6 6 5 6 4 4
16 24 18 18 18 20 19 23 21 39 39 36 39 37 37 39 33 27 21 18 17 11 7 5 4 4 3 4 6 7 7 7
20 24 29 22 21 22 17 18 34 46 46 41 40 39 39 38 34 27 23 24 16 11 9 5 4 5 5 6 8 10 10 11
17 18 24 17 18 17 18 24 41 41 37 42 42 41 40 39 29 28 29 21 16 12 10 7 5 4 6 8 11 12 13 14
11 16 16 17 19 18 21 20 38 41 41 49 43 41 34 29 31 30 27 21 16 12 12 11 8 8 8 9 12 13 16 17
8 11 22 19 20 22 25 29 35 32 44 44 43 37 34 35 34 33 27 21 15 16 16 14 11 13 13 12 14 15 17 18
7 10 8 10 16 19 24 32 33 34 44 33 35 42 34 36 38 30 25 20 18 20 19 14 14 16 17 18 19 20 19 21
6 8 9 9 10 17 23 26 27 32 34 34 32 37 41 42 40 31 25 22 22 23 21 17 17 19 20 22 24 24 23 22
4 7 8 9 11 13 17 20 23 29 30 32 36 37 42 41 40 29 27 26 25 24 22 20 22 23 24 23 27 29 34 35
5 5 5 8 10 11 12 14 17 21 25 28 32 36 39 40 33 28 28 28 27 24 23 23 23 25 23 26 30 31 28 28
11 8 7 6 6 8 9 12 15 17 20 24 28 30 33 32 26 30 31 28 27 24 25 27 26 25 25 27 29 29 26 35
15 13 11 10 10 11 10 10 11 13 17 19 23 26 25 23 26 29 28 27 27 28 28 28 30 24 24 27 29 31 38 30
19 19 16 14 14 13 14 15 15 15 14 18 20 21 20 22 25 26 26 28 30 32 34 40 21 19 25 27 28 31 32 33

GFSFLT2_700_spd_066.txt.gz
Wind_Speed
24 26 26 29 32 29 35 39 39 34 31 27 27 26 25 24 24 22 21 20 17 16 14 12 10 9 8 8 8 8 8 7
18 26 32 29 27 37 34 26 24 33 36 29 28 28 28 27 24 23 22 20 19 16 12 10 9 9 10 11 11 9 8 6
13 21 35 31 31 32 24 17 29 38 39 33 31 31 30 27 25 23 21 20 16 14 13 12 10 9 10 10 9 8 6 5
11 5 11 11 18 8 12 29 28 36 39 32 33 32 31 28 25 22 20 19 16 14 13 12 12 11 10 10 9 6 4 4
14 13 15 15 14 12 8 7 25 39 34 34 34 33 32 29 25 23 21 19 17 12 10 11 11 10 9 9 7 6 4 4
14 10 10 12 14 12 6 11 19 30 40 39 37 35 33 28 25 23 20 20 16 13 9 8 8 9 7 6 7 5 4 3
14 13 12 13 12 13 12 15 19 19 23 38 40 34 32 29 27 23 19 17 17 12 8 6 6 6 8 9 8 6 4 3
21 21 15 14 11 14 15 23 25 25 28 34 37 34 32 30 27 24 20 16 14 13 9 4 6 6 8 8 7 5 4 2
11 13 19 19 15 13 20 16 22 29 34 37 31 34 33 31 30 26 20 15 12 11 7 9 6 6 8 9 8 6 5 5
11 23 19 26 17 17 19 29 31 34 32 35 33 34 32 31 30 25 23 21 18 10 11 9 7 7 9 8 7 6 7 7
8 18 19 26 16 21 20 18 20 27 36 37 35 37 36 33 30 27 32 24 19 16 13 10 7 7 7 6 7 7 8 8
6 20 19 16 23 16 18 22 27 34 37 42 40 42 39 39 33 34 36 24 24 19 13 12 11 9 7 7 6 8 9 9
7 13 17 16 21 26 23 19 24 34 43 48 44 42 45 40 42 30 28 27 23 18 17 15 14 13 12 11 10 10 9 10
6 6 14 16 20 19 21 23 35 30 47 49 42 42 45 39 28 29 28 27 24 20 18 16 17 17 15 16 15 15 13 13
4 5 6 8 16 24 25 25 28 34 36 39 46 46 41 39 34 34 29 31 27 22 19 21 21 21 20 20 20 17 17 18
2 4 5 6 5 7 15 20 27 25 23 36 42 42 38 36 36 32 32 33 26 24 24 24 23 24 25 23 23 24 26 29
3 1 3 6 7 6 8 12 20 26 23 23 25 33 29 30 33 35 40 34 27 25 26 25 27 28 28 27 27 25 28 30
6 4 3 4 6 8 8 7 9 16 21 23 24 25 27 33 36 37 36 30 29 26 27 28 30 31 31 31 32 30 30 32
10 7 6 5 4 5 9 10 11 13 14 15 18 21 27 28 32 36 37 35 33 30 31 33 33 33 35 37 36 25 30 32
13 12 11 8 8 6 7 9 11 14 16 19 22 24 27 28 28 30 31 35 36 32 35 36 35 37 32 33 17 26 29 31

GFSFLT2_700_spd_069.txt.gz
Wind_Speed
20 25 28 30 39 41 42 38 38 41 36 32 28 27 26 23 22 22 22 20 18 17 15 14 12 11 10 9 9 8 8 8
18 23 28 36 44 44 42 43 35 41 44 30 30 28 24 24 26 26 24 21 19 18 16 14 12 11 11 10 10 10 9 8
23 17 23 35 47 38 39 39 40 43 43 36 32 27 28 29 28 26 23 21 19 16 13 11 9 10 10 10 10 9 8 7
17 26 22 26 39 33 34 36 37 34 32 35 31 32 30 31 30 27 24 21 18 15 13 11 10 10 10 11 10 9 8 7
16 17 13 7 28 14 6 16 21 33 36 35 31 35 34 33 32 30 25 22 18 16 15 14 11 10 11 9 10 8 8 7
12 12 11 6 16 15 10 7 27 38 35 36 38 37 35 33 29 26 25 22 18 13 14 15 10 11 10 11 10 8 7 7
19 13 6 11 16 17 13 11 21 34 39 42 39 36 34 30 29 28 25 22 20 17 17 12 11 10 10 10 10 9 8 7
17 17 13 16 19 15 11 15 20 30 43 42 40 38 31 28 29 28 25 23 21 18 12 11 10 10 10 10 10 9 8 8
9 22 15 19 11 16 15 13 23 28 34 42 41 37 29 28 31 27 24 21 19 15 13 9 7 7 9 12 12 11 9 8
9 12 18 22 19 16 23 14 23 34 32 34 41 38 33 32 29 27 23 24 19 14 13 10 6 8 10 12 13 12 10 8
10 10 27 26 17 16 21 23 27 30 37 38 41 37 33 32 30 26 25 25 18 17 12 11 9 10 11 11 11 10 9 7
9 10 22 21 18 15 16 21 26 30 35 39 41 36 34 34 31 29 29 23 20 18 16 12 12 10 9 9 9 9 7 8
10 4 22 22 23 22 25 25 20 27 33 39 47 39 39 38 37 34 31 29 22 22 18 16 15 14 13 12 11 10 8 8
8 5 15 21 22 23 22 25 21 30 32 42 41 41 43 43 39 39 37 37 34 26 20 19 18 16 15 16 16 15 11 12
6 6 2 10 16 26 23 24 24 31 32 44 44 43 50 48 42 39 43 43 33 24 24 22 21 20 19 20 20 19 16 15
3 4 4 3 3 6 20 23 24 31 34 37 45 49 52 47 47 44 34 29 30 30 24 22 22 20 22 21 24 25 25 25
2 4 4 4 4 2 7 20 19 28 39 31 42 46 42 39 46 44 31 33 34 28 23 24 24 25 25 25 27 29 28 28
7 5 5 4 4 5 5 7 15 32 34 27 25 33 36 40 33 35 34 36 32 26 25 25 30 30 29 29 31 32 32 33
9 6 5 5 5 4 5 7 8 12 18 26 25 24 29 28 30 29 36 36 35 33 32 34 33 34 33 32 35 34 39 37
11 9 8 6 6 7 7 7 8 10 12 15 16 19 20 21 27 33 38 38 36 38 40 40 39 38 36 35 39 43 29 19

GFSFLT2_700_spd_075.txt.gz
Wind_Speed
21 21 20 20 20 16 22 29 27 25 28 25 26 25 20 23 18 19 20 19 18 18 18 17 16 15 14 13 11 9 10 10
20 17 19 20 18 20 22 21 31 28 30 29 31 27 27 28 20 22 24 21 20 20 18 17 15 15 14 13 11 9 9 11
19 18 16 19 18 22 25 22 23 29 30 30 32 31 30 32 21 21 20 22 22 20 17 17 15 14 14 13 12 11 11 10
12 14 15 20 26 29 27 28 29 31 33 32 26 25 27 28 25 23 23 23 23 21 19 17 14 12 13 13 13 12 11 9
10 12 16 20 25 26 33 36 34 43 40 34 30 28 34 28 27 28 27 27 26 23 20 18 15 13 14 15 13 13 11 11
12 15 17 21 27 34 41 42 48 41 45 39 30 29 35 31 30 31 30 28 26 23 21 18 17 16 15 12 12 12 12 12
11 15 19 22 20 19 20 16 36 39 35 34 28 36 38 32 31 31 30 28 26 24 21 18 18 17 16 15 12 12 12 13
12 12 17 14 14 2 5 19 27 34 37 36 36 34 42 35 32 32 30 28 25 23 21 20 19 17 15 14 14 13 13 12
12 10 11 13 9 9 9 8 18 26 32 33 36 42 41 34 35 30 30 28 27 25 22 22 20 18 16 14 14 14 12 12
11 10 12 16 18 16 12 8 11 28 34 28 35 35 33 34 35 30 29 30 29 26 24 23 21 18 16 14 15 15 14 13
10 11 7 18 15 11 15 13 12 15 27 30 28 39 35 34 34 32 30 28 28 25 25 21 19 15 15 14 15 16 15 15
12 11 10 18 23 14 17 16 15 16 20 24 28 38 38 38 35 34 34 29 28 27 26 24 19 16 15 13 15 15 15 16
11 12 9 21 24 21 23 22 17 15 24 29 29 36 46 42 37 38 31 33 28 30 28 23 20 16 12 12 14 12 13 14
8 9 6 16 22 23 18 21 20 21 22 32 35 37 39 42 42 43 35 33 33 32 27 24 21 16 13 15 14 15 14 14
7 6 2 7 18 18 26 20 25 29 25 29 33 42 47 50 49 47 41 37 38 33 31 27 24 21 22 19 19 18 16 17
7 4 1 4 8 13 20 18 26 25 27 25 33 39 37 48 49 46 44 44 42 39 39 34 35 30 32 28 24 20 15 15
9 6 3 3 5 6 11 20 24 26 29 27 37 41 34 46 50 47 48 47 45 44 40 40 37 36 34 32 28 25 22 22
12 10 8 6 5 5 6 10 17 29 28 30 36 40 43 44 49 50 49 50 49 47 42 42 46 41 35 32 30 26 26 25
15 13 11 8 6 6 5 6 8 15 27 29 28 41 38 37 49 53 51 49 49 46 48 47 47 45 39 35 30 29 29 29
18 17 15 12 10 9 7 6 6 7 10 20 33 33 36 25 31 40 52 44 48 43 40 43 44 37 34 38 35 34 33 32

GFSFLT2_700_spd_078.txt.gz
Wind_Speed
21 19 17 19 20 23 24 22 31 35 30 28 22 19 18 14 14 17 18 18 19 19 19 18 18 17 15 14 12 11 9 10
22 20 17 19 19 22 19 18 30 27 31 28 24 24 23 19 16 17 20 21 22 23 20 19 17 16 16 14 12 9 10 10
17 16 15 17 18 19 15 14 17 22 31 30 30 29 27 23 23 20 23 23 24 22 22 19 18 17 18 15 14 11 11 12
7 9 12 12 15 18 17 15 16 16 31 29 33 28 28 29 23 23 24 25 25 23 22 21 20 17 17 14 13 14 10 12
6 7 10 11 15 17 19 14 18 19 28 28 34 26 17 25 28 26 26 27 25 24 23 21 18 17 18 15 13 14 10 13
7 11 13 15 19 21 23 22 24 28 25 37 38 29 14 24 32 23 25 25 24 24 23 21 20 18 17 14 15 14 11 12
10 11 16 17 19 19 23 31 37 36 36 40 32 30 23 29 29 28 25 27 26 25 24 23 21 19 15 16 17 13 10 11
14 13 14 16 15 12 14 17 19 23 32 39 28 25 26 30 36 32 28 26 26 26 25 23 22 19 17 17 18 13 11 12
15 15 13 13 13 9 4 9 9 13 34 35 28 25 24 32 41 31 28 28 28 27 24 23 22 20 18 17 15 12 10 12
12 15 15 13 15 13 4 7 7 19 22 33 30 33 30 35 41 31 30 30 30 29 25 24 22 21 19 17 15 13 12 12
12 12 16 14 16 16 12 6 6 5 16 26 37 32 37 35 39 35 31 32 32 29 26 25 22 21 19 16 14 14 13 13
13 14 13 12 16 18 16 13 9 9 17 28 30 35 33 35 36 35 34 31 31 31 28 25 21 20 18 15 14 15 13 15
12 14 13 10 18 20 16 18 13 15 13 21 23 22 23 41 35 34 35 34 25 28 27 24 24 24 21 17 16 13 14 15
11 13 10 8 15 18 17 16 16 15 14 19 18 22 25 39 35 36 34 32 34 31 32 29 27 25 22 17 16 16 15 16
11 11 9 5 12 19 21 19 22 19 19 19 24 26 25 37 43 39 39 37 40 36 33 31 28 26 24 23 20 18 17 18
10 9 7 4 4 12 16 20 21 22 22 18 22 24 25 34 43 40 40 39 40 33 31 30 30 28 28 26 23 26 28 24
11 9 7 4 3 7 11 15 17 18 23 25 22 23 30 39 42 47 45 46 42 34 36 37 36 35 35 32 32 27 28 27
12 11 10 6 4 6 8 9 13 16 23 23 26 28 29 35 32 35 48 48 47 42 43 42 42 41 43 37 39 33 30 29
13 13 12 10 7 6 8 9 8 10 16 24 30 30 32 35 34 32 41 53 49 51 48 47 47 47 45 38 40 38 31 33
15 14 15 12 11 9 8 7 6 8 9 16 25 27 28 28 31 26 36 50 55 54 51 50 49 49 51 45 38 42 43 34

GFSFLT2_700_spd_081.txt.gz
Wind_Speed
20 17 19 19 20 21 24 27 25 24 31 40 30 25 19 23 20 17 21 19 20 21 20 20 19 16 14 13 11 11 11 12
25 21 22 20 20 22 22 22 23 29 38 41 35 22 21 16 18 22 20 21 22 23 22 20 18 17 17 14 12 12 11 11
16 14 15 18 18 19 18 19 14 23 28 43 35 29 27 24 20 22 22 22 24 24 23 22 22 20 18 15 13 14 12 13
9 6 10 12 15 16 16 15 12 14 32 36 35 32 29 26 26 23 23 24 25 25 25 26 23 21 20 16 12 13 11 12
9 8 8 10 11 12 14 14 13 11 27 40 35 34 29 28 26 26 25 26 28 29 28 25 23 22 21 15 12 12 13 13
11 11 12 13 14 15 15 14 14 10 16 34 33 36 24 22 25 32 28 29 30 30 29 24 24 23 20 16 11 10 13 12
12 12 14 14 14 17 17 18 18 17 16 27 37 32 23 16 22 31 29 30 31 31 27 27 26 22 20 16 13 11 11 11
15 15 14 15 12 14 16 19 22 25 26 27 31 42 32 21 13 29 29 30 32 31 29 27 25 23 21 18 13 12 13 13
18 16 16 14 13 11 12 15 14 18 21 26 31 34 30 25 19 37 30 31 28 26 29 28 25 22 23 19 14 11 12 13
15 18 18 15 12 11 10 5 11 17 22 26 34 40 29 22 24 34 33 34 32 31 27 25 22 23 22 19 14 13 13 12
12 15 18 18 14 10 13 3 10 19 20 26 37 33 26 32 26 35 38 32 33 32 27 25 25 25 22 19 16 12 13 12
10 13 16 18 15 12 17 11 6 12 16 24 32 30 26 23 33 40 43 37 34 30 28 27 26 24 23 19 17 13 12 12
9 11 13 16 13 13 16 17 13 9 13 25 23 29 33 30 35 35 41 35 33 31 29 29 28 26 23 22 19 16 15 14
8 10 11 12 9 12 15 12 13 10 16 27 30 32 31 32 28 31 41 40 37 34 32 30 28 25 24 21 22 21 18 19
9 9 9 10 7 12 18 18 19 16 15 24 26 24 25 29 20 40 39 33 37 32 26 29 28 31 31 27 27 24 19 19
10 8 7 8 7 5 14 17 19 13 13 15 20 23 20 24 21 40 42 40 34 39 30 28 30 31 29 30 28 26 23 22
11 10 7 6 5 3 8 13 15 16 19 18 16 20 20 21 25 39 41 38 37 34 37 40 37 30 33 29 29 28 26 27
12 11 9 6 4 3 4 7 11 15 16 18 18 16 22 19 22 24 41 42 42 39 37 36 41 36 36 35 33 32 29 30
12 11 11 8 6 4 3 4 6 10 11 13 16 21 24 20 15 21 33 42 42 41 37 38 37 40 44 42 39 39 40 40
13 12 12 11 8 7 5 3 3 6 9 11 14 21 21 21 21 19 28 33 40 45 41 41 42 46 45 41 40 43 44 40

GFSFLT2_700_spd_084.txt.gz
Wind_Speed
23 19 21 21 21 21 24 27 29 31 29 26 22 29 25 24 23 21 25 22 20 20 20 20 20 18 16 17 16 13 13 12
22 22 22 23 23 23 23 26 26 29 30 28 20 24 30 25 23 25 25 23 22 23 23 22 21 19 18 18 17 15 12 12
20 14 12 18 21 22 23 25 24 24 26 28 33 33 35 30 28 27 26 25 26 26 26 26 24 20 19 17 15 14 14 13
13 10 8 9 15 18 20 20 22 21 21 30 35 37 39 27 26 32 28 27 27 27 27 26 24 22 19 17 16 14 14 14
12 11 10 10 10 14 17 16 19 19 18 17 31 46 39 32 29 30 30 29 30 30 29 26 25 21 18 15 17 15 14 15
14 13 12 14 14 16 19 19 20 20 16 21 40 46 37 35 30 26 26 28 30 30 29 29 26 23 19 16 15 14 14 16
15 14 13 15 15 16 19 19 19 18 18 22 42 38 36 33 30 27 23 27 30 31 32 30 28 24 19 17 16 15 15 16
18 16 14 15 16 15 17 18 20 18 16 27 40 36 33 31 26 25 22 31 32 32 31 31 29 23 20 18 17 16 16 15
18 17 14 15 15 15 17 17 19 20 20 19 34 34 31 25 19 17 24 33 34 33 32 32 31 24 22 18 17 17 15 14
16 15 13 14 15 15 14 14 16 17 24 26 30 30 37 30 22 17 27 34 35 36 36 33 30 24 22 20 18 16 14 15
13 13 14 12 15 14 12 11 6 16 22 29 27 31 29 36 27 26 33 34 37 36 34 31 28 27 23 22 18 17 17 14
13 12 13 12 13 12 12 14 7 11 21 25 30 30 28 37 25 30 34 34 37 35 32 27 27 28 26 24 22 19 17 15
14 13 12 13 12 9 11 16 13 9 18 25 24 26 34 32 31 30 38 39 35 35 34 30 32 31 28 27 25 21 20 18
14 14 11 10 12 6 12 12 14 9 18 24 27 30 30 30 33 27 31 40 42 37 37 37 36 32 30 28 28 24 19 18
14 14 12 8 10 7 12 19 16 15 9 28 31 29 34 29 29 28 34 41 46 39 37 35 33 31 30 30 28 27 27 25
14 14 13 8 6 7 7 12 12 13 7 17 28 25 27 30 25 30 22 36 39 41 38 36 32 30 30 29 25 31 25 27
13 14 13 9 5 5 4 8 12 15 12 16 24 29 29 27 29 31 18 36 38 39 40 29 28 28 33 31 33 31 31 32
13 13 13 9 5 5 4 5 8 12 16 19 21 26 32 30 28 31 24 36 37 39 39 43 32 30 29 30 31 30 33 34
14 13 12 10 6 4 3 4 5 7 10 10 16 20 25 25 29 26 25 28 40 41 39 29 35 34 36 37 35 35 35 33
15 13 11 11 9 6 4 4 3 4 7 10 9 18 26 22 22 19 21 29 33 43 39 38 37 36 38 38 40 37 41 40

GFSFLT2_700_spd_090.txt.gz
Wind_Speed
23 25 22 17 15 16 17 21 24 26 28 29 29 29 36 31 22 28 23 33 23 22 21 22 20 18 18 17 16 15 13 12
22 20 19 14 13 17 19 21 22 24 24 26 27 25 21 21 23 20 31 40 25 24 23 22 20 19 20 18 17 15 14 13
22 22 18 12 11 11 17 20 21 23 24 26 25 26 26 23 23 18 31 31 26 24 23 20 21 21 19 18 17 15 14 13
21 21 19 16 13 11 11 17 20 23 25 27 25 24 24 25 19 18 33 30 30 26 26 21 20 21 20 19 16 14 14 14
20 21 21 17 13 12 12 13 17 20 24 26 24 25 23 24 25 18 34 38 31 29 30 26 23 20 20 19 17 15 15 14
20 23 23 20 16 14 14 15 17 20 21 24 24 27 27 23 23 22 38 32 32 30 27 27 23 22 19 18 17 17 15 15
20 23 24 22 19 18 17 17 18 20 23 25 27 24 30 26 27 33 39 33 29 27 25 26 24 27 24 22 19 17 17 15
20 22 23 23 19 19 20 20 21 21 23 25 27 32 33 41 36 36 41 35 32 26 22 25 27 28 25 23 21 19 15 15
20 21 22 21 19 18 20 21 23 21 21 24 24 32 27 29 31 34 37 32 29 24 26 27 28 26 25 22 21 20 16 15
20 19 18 18 19 19 21 21 22 20 17 18 22 26 25 30 33 37 37 32 30 28 28 28 26 24 24 23 19 18 16 12
19 18 16 18 18 18 21 22 20 16 14 18 18 15 27 31 38 37 35 34 31 26 27 27 26 26 24 24 20 17 15 13
16 17 15 17 18 18 20 22 17 13 9 11 9 21 37 36 34 32 29 30 32 30 29 26 24 24 24 25 23 20 18 16
12 15 15 15 17 19 20 19 13 11 6 10 14 31 29 32 35 33 32 30 27 28 29 30 31 31 32 29 28 22 26 23
18 14 16 15 16 18 20 17 12 11 6 11 21 21 27 32 36 36 36 34 32 34 34 34 33 30 34 29 29 28 26 24
19 14 16 14 14 16 17 15 11 8 6 8 14 27 18 37 28 33 26 32 36 34 34 34 32 32 32 32 32 29 24 24
21 18 16 14 12 14 15 12 8 8 6 6 13 29 30 24 32 31 29 35 36 35 33 32 32 33 33 33 29 27 26 24
20 20 16 14 11 12 12 10 8 13 11 8 9 22 22 24 25 32 30 28 24 34 34 38 34 34 33 30 31 30 29 26
23 23 18 13 11 11 10 9 6 10 9 9 6 21 22 22 29 26 27 28 24 19 20 34 39 36 33 34 38 33 26 31
26 24 19 14 12 10 8 7 6 8 9 9 8 9 18 27 24 26 26 30 18 27 18 20 33 44 48 35 32 33 27 27
26 25 18 16 12 10 8 6 5 6 7 8 8 10 12 22 25 26 26 22 22 21 18 18 28 29 40 38 35 34 35 37

GFSFLT2_700_spd_093.txt.gz
Wind_Speed
12 13 16 17 13 10 8 13 16 21 23 24 24 26 32 24 24 32 24 22 18 30 24 19 18 18 18 17 18 17 15 14
13 13 14 15 13 10 9 13 15 18 20 22 25 24 25 19 15 18 20 24 27 27 25 23 19 19 19 19 19 18 15 13
13 13 12 15 15 15 10 10 15 19 21 22 23 23 22 19 18 19 21 23 28 33 26 22 19 20 20 19 19 17 15 13
12 12 12 14 14 16 11 8 11 19 22 23 23 23 22 20 20 22 22 19 22 35 31 24 22 24 22 22 20 17 15 14
11 13 13 14 13 16 15 10 10 15 20 23 24 24 24 21 23 23 16 17 23 38 29 27 25 22 20 20 18 16 16 14
13 14 16 16 14 14 18 13 12 14 18 22 24 26 26 22 23 23 23 18 27 36 31 28 25 24 22 20 18 17 15 14
14 15 17 17 16 14 18 17 16 16 19 22 24 26 27 23 23 26 25 20 27 35 30 27 24 24 24 23 18 16 17 16
14 17 17 17 17 13 16 17 17 19 21 22 24 26 27 26 26 25 25 22 32 33 28 25 27 25 24 22 21 18 18 17
18 18 17 18 16 13 15 16 18 20 22 23 24 27 27 32 35 30 28 24 29 34 29 28 30 29 26 21 20 19 16 16
20 20 18 18 16 15 15 16 17 21 23 23 24 25 28 35 40 24 35 33 28 36 30 30 31 28 25 25 22 19 18 17
20 20 20 19 17 16 16 17 17 21 22 20 20 23 27 29 33 27 38 33 35 34 30 31 31 29 27 25 22 20 18 16
19 17 19 18 17 16 16 17 18 21 18 15 18 24 20 26 33 29 36 36 34 33 31 28 27 27 28 27 25 21 20 18
23 17 15 16 16 16 16 16 17 19 14 13 15 19 14 24 29 33 30 37 33 30 28 29 30 30 27 29 26 25 22 19
27 20 13 14 15 16 15 15 15 15 13 12 13 15 19 23 34 39 35 36 34 31 28 30 29 27 31 28 28 27 25 22
27 23 18 14 14 15 14 13 13 10 10 6 16 12 29 26 33 34 35 33 28 33 33 31 30 32 30 30 31 28 23 22
27 25 21 15 14 14 14 11 11 10 11 10 10 23 24 30 27 36 37 34 31 30 29 29 32 32 30 29 30 31 26 25
27 24 23 18 13 13 14 10 10 12 15 12 8 14 27 22 34 34 30 32 28 27 34 35 32 33 32 30 31 30 29 27
25 24 23 19 14 13 13 10 9 10 14 13 10 9 24 28 31 31 26 29 26 25 31 27 29 35 35 33 33 33 32 28
30 27 25 21 14 13 13 10 9 8 12 13 12 9 21 24 27 30 24 28 23 19 23 17 17 19 37 35 35 36 37 35
32 30 28 24 16 14 13 11 9 8 9 12 12 11 20 25 22 25 27 28 17 24 17 18 16 14 31 39 40 43 43 37

GFSFLT2_700_spd_099.txt.gz
Wind_Speed
8 8 11 8 7 6 6 4 9 12 15 16 17 17 17 17 17 17 18 20 23 24 28 20 16 17 17 16 14 17 16 14
9 8 11 9 7 7 6 5 7 11 14 17 19 21 20 20 20 22 27 21 26 25 18 17 20 21 17 16 15 12 13 15
11 10 11 10 8 7 7 6 6 10 14 16 18 21 23 23 25 24 20 22 20 18 18 21 15 23 18 16 16 17 12 18
12 13 12 11 9 8 8 9 8 8 12 14 17 21 23 24 24 24 22 21 21 21 20 20 25 24 21 20 19 22 17 20
15 14 14 12 11 10 10 11 10 10 11 12 17 20 22 23 25 23 24 23 23 22 20 19 17 26 23 20 22 19 16 21
18 17 17 15 14 11 10 13 14 12 13 13 16 19 21 24 26 26 24 24 24 22 19 14 23 25 21 20 23 21 22 25
21 19 17 17 15 13 12 13 15 15 15 16 16 20 22 24 26 27 25 25 24 21 20 17 20 24 23 25 24 22 22 22
23 20 17 18 16 16 13 12 14 16 17 17 18 19 23 25 26 28 26 26 24 22 21 12 26 28 27 26 25 27 21 21
27 24 20 20 19 19 16 14 15 16 18 19 20 21 23 26 26 30 27 27 26 26 24 17 35 29 28 27 29 25 23 21
31 27 24 23 22 21 20 16 17 17 19 20 21 22 25 27 28 29 29 29 29 25 28 27 30 28 27 28 28 25 23 21
35 30 25 27 25 23 23 20 18 19 20 22 22 23 27 30 33 31 30 31 30 27 33 30 31 29 26 26 28 26 24 22
34 34 31 28 27 26 25 23 20 21 22 24 23 24 26 30 31 32 31 33 33 31 32 31 38 31 28 28 28 29 22 23
40 38 35 28 29 27 24 22 22 23 24 25 24 22 20 23 26 31 34 38 35 36 27 38 39 33 33 30 29 25 24 22
45 42 40 35 31 27 23 24 25 24 25 25 23 20 21 26 30 32 38 34 41 36 34 40 40 35 35 35 32 29 30 26
42 43 41 41 32 30 25 24 25 24 25 24 21 19 21 24 26 24 32 33 34 35 38 38 39 39 38 35 34 33 27 28
42 42 40 34 32 32 24 22 22 24 25 23 20 20 21 21 22 24 30 37 37 31 36 38 43 43 37 34 32 29 32 28
44 42 40 32 32 34 26 24 22 23 24 22 18 18 19 16 16 18 22 26 29 35 38 34 43 37 35 33 30 32 22 21
43 41 42 34 35 37 30 27 24 23 23 21 16 17 18 14 16 17 28 22 30 35 39 36 34 36 32 33 34 31 29 26
41 43 39 35 35 39 35 30 25 22 21 21 15 15 17 14 16 15 20 19 29 34 34 36 37 33 35 35 34 33 34 34
39 43 38 37 37 41 37 31 26 22 20 20 14 13 16 15 14 21 23 29 33 37 35 32 32 36 40 42 32 36 39 29

GFSFLT2_700_spd_102.txt.gz
Wind_Speed
9 7 6 6 6 6 7 7 6 9 13 14 15 14 16 17 16 15 13 13 15 12 13 19 18 21 18 15 13 14 16 18
11 8 7 7 5 6 7 7 6 7 11 14 15 17 18 19 19 17 15 16 16 13 19 20 9 27 23 18 15 14 16 17
14 11 9 10 6 7 8 8 7 7 9 13 16 18 19 20 20 20 20 16 14 16 16 15 9 16 27 22 17 19 19 19
16 15 13 12 9 6 8 9 9 9 8 10 13 17 18 20 23 22 21 18 19 18 17 17 16 23 27 28 22 19 22 16
18 17 16 15 12 9 8 9 11 10 11 11 12 15 17 21 21 20 21 20 20 19 18 17 15 16 24 27 24 20 21 25
22 17 19 17 15 12 10 9 11 12 12 12 13 14 16 20 21 21 22 22 21 20 18 17 17 19 22 24 22 22 28 17
26 19 21 19 19 14 12 12 11 12 13 14 16 17 17 20 22 23 22 22 23 21 17 18 16 14 22 28 21 22 26 24
29 23 21 20 20 17 14 14 13 13 13 14 17 19 19 20 23 25 24 23 25 22 19 18 13 15 28 28 26 24 23 28
35 30 23 23 21 22 17 18 17 13 14 14 17 19 21 23 24 27 26 26 26 23 22 21 22 20 29 28 31 32 30 28
32 35 25 26 24 24 20 21 20 18 16 16 16 19 21 23 26 27 27 29 27 26 25 22 23 24 30 31 33 31 26 27
34 35 30 28 27 26 26 24 22 23 19 18 18 20 22 24 27 28 28 33 25 26 26 25 23 26 31 32 30 29 26 27
36 37 38 30 29 28 27 29 23 23 23 22 20 23 24 26 29 30 28 31 29 28 28 29 26 27 29 25 29 28 26 27
34 38 43 34 32 32 29 28 25 23 24 25 23 25 25 28 27 25 26 28 29 30 29 29 26 31 33 29 26 29 26 27
38 41 45 43 34 33 32 29 27 25 27 25 24 26 27 29 25 24 26 28 31 34 35 35 35 34 37 36 31 25 27 25
35 36 43 44 37 36 35 31 30 29 26 24 24 26 28 28 26 25 29 31 32 36 35 38 33 40 38 38 36 31 26 28
25 37 37 43 37 37 37 35 31 26 23 24 24 25 28 27 26 28 26 27 26 37 43 40 34 44 42 35 31 28 25 24
39 33 39 40 36 32 32 33 30 26 24 24 22 24 28 26 26 25 22 25 27 30 37 40 38 46 42 36 31 30 28 27
39 35 42 44 39 34 31 31 32 28 24 22 20 23 27 24 24 21 17 22 24 28 34 33 35 44 36 40 32 26 27 27
35 34 36 45 41 36 33 32 36 32 27 23 20 23 24 23 20 16 15 20 23 19 36 33 35 38 39 39 28 28 28 27
33 39 35 49 42 35 34 34 38 37 29 25 18 23 22 23 20 12 9 17 18 19 24 34 35 37 37 33 33 35 34 33

GFSFLT2_700_spd_105.txt.gz
Wind_Speed
12 12 11 10 9 6 6 5 5 5 8 11 13 15 16 17 16 14 14 14 7 7 6 7 2 18 18 19 16 15 13 14
13 12 12 10 9 7 7 5 5 5 6 10 13 15 17 16 16 14 15 14 12 8 10 14 8 10 27 23 20 18 16 19
16 14 12 12 10 8 7 7 6 6 5 8 13 16 17 18 17 17 17 15 13 11 10 9 7 7 27 25 22 19 16 16
20 16 14 14 11 9 8 6 8 7 6 8 11 14 17 18 20 20 16 16 17 17 13 10 8 5 15 25 26 23 20 18
22 21 17 13 14 12 11 7 6 7 7 10 11 14 16 18 19 18 18 18 18 16 13 11 11 12 14 20 34 27 21 21
26 25 20 15 14 14 13 9 7 8 9 11 12 14 14 16 17 17 17 17 16 16 15 14 14 14 14 15 33 29 23 21
26 25 20 19 14 16 14 12 8 8 9 11 13 15 14 16 19 18 18 18 17 16 16 15 16 15 13 12 34 29 24 21
21 24 23 23 18 16 16 14 11 10 10 11 13 14 15 16 19 21 20 19 19 18 17 17 18 16 17 15 32 29 26 26
26 23 25 25 23 18 19 16 15 13 12 13 14 15 15 16 19 21 20 21 23 21 20 20 20 17 16 15 35 31 26 24
29 29 29 28 27 24 19 19 18 17 15 15 16 15 14 17 19 20 23 24 25 24 23 20 22 19 18 16 33 31 29 31
31 31 30 28 26 28 23 23 21 19 20 17 17 18 17 17 18 20 23 26 26 27 27 26 25 22 20 21 32 29 33 32
33 29 29 30 31 28 29 25 25 23 22 20 19 20 21 21 20 20 24 29 27 29 29 30 28 23 24 17 31 29 31 29
34 37 33 33 34 34 31 29 26 25 23 22 23 21 22 22 22 22 25 29 27 30 29 30 27 27 25 26 33 37 33 30
37 36 37 36 35 36 33 34 30 27 27 25 26 24 22 24 23 22 24 26 26 28 30 32 31 33 28 37 37 33 29 32
36 35 34 38 41 41 38 37 35 31 28 29 28 25 24 24 23 24 24 25 25 27 31 34 37 35 29 43 40 41 35 31
37 34 33 34 40 43 38 32 37 32 29 27 27 26 25 24 24 24 25 24 27 30 32 36 39 34 32 41 44 43 30 26
44 41 32 30 34 39 37 30 34 35 32 29 27 25 23 24 23 24 24 26 28 30 35 41 41 41 37 46 46 41 29 21
44 46 45 44 33 41 41 34 30 32 30 29 28 22 22 23 23 23 24 26 28 29 33 31 36 42 37 37 45 42 34 28
46 49 46 49 49 39 41 38 30 29 28 30 27 23 21 22 22 22 24 26 25 28 24 30 35 43 41 40 44 37 33 32
53 58 59 57 54 52 45 38 32 31 30 32 29 26 22 22 21 20 21 26 19 20 24 25 34 33 36 49 45 36 33 25

GFSFLT2_700_spd_108.txt.gz
Wind_Speed
17 14 11 8 9 10 8 6 5 4 7 11 13 15 16 17 17 17 15 14 10 7 9 12 9 17 20 18 15 15 16 16
17 16 13 9 9 10 8 6 6 5 6 10 13 16 15 16 17 18 17 12 10 8 8 8 10 15 20 19 21 23 18 16
19 17 14 11 9 9 9 6 6 6 7 8 11 14 14 15 17 18 15 14 13 10 9 7 10 10 17 22 23 25 23 20
19 17 16 14 11 9 10 8 6 8 8 8 9 11 13 14 17 18 17 16 14 14 12 11 10 7 7 23 23 20 22 21
21 20 19 18 13 10 10 10 7 7 9 9 10 10 12 14 16 18 19 17 16 16 14 13 11 9 10 12 24 28 22 22
25 24 23 22 16 12 11 11 9 7 8 10 10 10 12 12 14 16 17 17 16 15 15 15 13 12 12 22 20 20 28 28
32 31 28 26 19 14 12 11 11 9 8 9 10 10 12 14 14 15 16 16 16 15 15 15 15 15 17 19 21 19 30 31
27 25 29 26 21 17 15 13 14 11 10 9 10 9 10 13 15 15 15 15 17 17 16 17 17 18 19 21 21 19 31 33
25 22 26 26 25 23 19 17 16 15 13 11 11 11 9 11 13 16 15 15 19 20 19 18 19 20 21 21 20 20 31 33
21 20 25 26 25 23 22 21 19 17 16 15 13 13 12 11 12 14 16 18 18 21 21 20 21 20 20 20 21 15 31 34
26 28 27 27 25 25 25 26 24 21 18 17 16 16 15 15 15 14 16 19 19 21 23 23 23 21 21 22 22 22 34 35
30 33 31 30 28 27 24 24 26 26 22 20 19 18 18 18 18 17 18 20 20 22 24 25 24 24 23 23 23 23 37 35
37 34 37 34 32 31 30 26 24 28 26 24 22 21 21 20 21 20 20 21 21 22 23 25 26 27 26 27 27 24 34 34
40 37 37 36 36 33 30 28 28 27 31 29 26 23 24 23 21 22 22 23 23 22 22 25 30 30 31 30 31 31 37 35
42 39 38 33 33 35 35 30 33 34 33 33 30 25 25 24 22 23 23 25 24 22 22 25 31 33 34 39 35 35 39 42
43 43 35 31 32 35 36 33 32 33 34 33 32 29 26 25 24 23 25 26 25 22 23 26 29 34 38 39 36 38 47 43
38 43 42 41 38 35 31 32 28 30 31 33 33 31 28 26 23 24 25 26 25 23 25 29 32 35 38 45 41 37 44 39
41 40 41 44 44 43 43 33 29 31 28 28 34 33 30 27 23 24 24 26 24 23 23 30 35 36 36 43 43 46 48 36
38 36 35 40 44 44 46 41 33 32 31 30 31 33 31 27 24 24 24 25 23 22 25 31 32 41 33 35 39 38 39 40
40 44 42 37 37 41 46 48 46 35 35 32 32 32 30 29 27 25 24 25 23 22 25 28 30 34 37 35 44 40 33 46

GFSFLT2_700_spd_114.txt.gz
Wind_Speed
9 7 5 6 7 8 5 6 6 6 6 6 6 7 9 10 11 12 12 12 12 12 12 8 8 7 6 9 11 12 14 12
12 11 10 8 7 8 5 5 6 6 5 5 5 8 10 11 11 12 14 14 13 12 12 9 8 7 9 10 15 17 17 15
17 14 9 8 7 8 7 6 5 6 6 5 4 6 8 10 11 13 15 15 14 13 12 10 8 6 8 11 16 17 16 18
18 16 12 10 9 7 9 7 6 5 6 5 4 5 8 10 12 14 16 16 15 15 13 12 12 9 8 10 12 18 21 25
18 18 16 13 13 10 11 10 7 5 5 5 4 4 6 10 12 13 14 17 16 16 14 13 13 12 11 13 10 16 21 20
22 21 19 16 16 13 13 13 9 7 5 4 3 4 5 8 9 12 13 15 17 17 16 15 16 15 14 15 12 11 17 16
25 23 21 19 19 18 16 15 13 9 6 5 3 3 5 7 8 11 13 15 17 18 19 18 18 17 16 15 14 13 14 13
29 26 23 22 21 23 21 18 16 12 9 7 4 3 3 5 7 10 11 13 16 18 20 20 20 19 18 16 17 16 16 19
33 28 25 24 19 23 28 22 20 15 12 11 8 5 4 4 6 8 10 12 14 17 19 20 21 21 20 18 18 18 16 19
35 32 29 25 23 24 29 26 23 18 16 14 13 10 7 6 5 7 9 11 13 15 18 20 20 21 21 21 21 20 19 20
40 36 30 26 18 21 25 26 24 20 20 17 16 14 11 10 8 9 11 12 13 14 16 18 19 20 22 24 23 23 21 21
38 37 31 23 19 21 26 28 25 23 20 19 19 18 15 13 12 12 13 14 14 14 15 18 19 20 24 25 27 25 24 22
42 41 34 28 24 22 24 28 31 26 22 20 21 21 19 17 14 16 16 15 16 16 17 18 19 21 24 26 29 28 26 27
43 45 37 31 27 26 28 28 29 25 24 22 19 16 20 21 19 19 20 19 19 19 19 19 20 21 23 25 30 29 31 27
41 40 38 35 34 34 34 33 34 32 28 28 24 21 20 19 18 21 24 24 22 22 21 21 21 22 23 25 31 32 29 29
43 42 42 40 39 40 38 37 36 32 30 31 29 27 23 22 22 23 27 27 26 25 24 23 24 25 25 27 31 32 34 34
43 43 43 40 39 42 41 43 38 35 33 33 33 31 27 25 25 25 28 28 28 28 27 26 26 27 27 26 29 32 35 38
40 37 44 43 40 40 43 42 43 38 36 37 34 33 32 29 27 24 27 29 30 29 29 28 29 29 29 29 30 34 37 37
45 50 50 49 50 46 40 38 39 38 38 37 37 37 38 34 28 28 25 30 29 30 31 30 30 31 30 30 30 34 38 38
39 42 49 48 38 40 40 36 37 37 37 37 40 34 33 34 30 28 25 28 32 32 33 33 31 32 31 30 30 34 39 40

GFSFLT2_700_spd_117.txt.gz
Wind_Speed
14 9 6 6 7 5 3 1 3 4 4 4 5 8 9 10 11 10 11 11 10 8 8 6 6 6 7 7 8 11 11 9
16 13 9 8 8 6 4 2 2 3 4 3 6 8 9 10 11 11 12 12 11 10 8 7 6 7 6 7 11 11 10 11
20 18 11 9 9 8 6 4 3 2 3 3 4 7 9 11 11 12 12 12 12 11 10 8 7 6 6 8 9 10 12 13
25 21 16 13 11 10 8 7 6 3 3 3 5 6 9 11 12 12 13 13 13 12 12 9 9 9 7 7 9 11 14 18
31 25 18 17 14 13 10 9 7 6 3 4 5 6 7 10 12 12 12 12 12 13 11 11 10 11 12 9 8 10 14 17
36 29 23 20 17 17 12 12 9 8 6 5 5 5 6 8 10 11 12 11 12 13 13 13 13 13 13 12 10 10 12 15
41 35 28 25 20 19 17 15 13 11 9 7 6 6 6 8 9 11 12 13 13 14 15 14 16 16 15 14 13 12 11 12
46 39 32 28 23 22 21 20 17 14 12 10 8 7 6 7 9 10 12 13 14 16 17 17 18 18 17 15 14 14 14 15
51 44 38 32 26 24 24 24 23 19 15 14 11 9 8 6 7 9 11 13 14 16 17 17 18 18 18 17 15 15 17 18
54 49 43 36 29 27 25 27 28 24 20 17 16 13 10 9 7 8 9 11 12 13 15 16 17 17 18 18 18 18 19 20
57 53 47 38 34 30 29 28 30 29 24 20 17 17 14 12 10 9 10 11 11 12 14 15 16 18 18 19 20 21 21 22
55 58 49 44 38 33 33 25 30 32 26 21 20 19 19 16 13 12 12 12 12 13 14 15 16 19 19 20 21 23 25 24
58 59 57 50 42 36 33 27 29 31 28 22 21 21 21 20 17 15 14 13 14 15 17 18 18 19 20 20 22 25 26 25
55 60 57 52 44 38 35 28 28 29 27 26 22 21 22 22 21 19 17 17 17 17 18 19 20 20 21 21 23 23 25 24
49 56 57 55 47 41 36 34 33 32 30 27 24 22 20 19 21 22 21 20 20 20 21 22 22 22 22 24 25 25 23 24
41 49 52 52 49 43 41 37 34 30 30 29 27 28 26 24 22 20 21 21 23 25 25 25 25 25 25 25 25 27 26 26
38 37 48 51 49 46 44 40 38 34 32 34 34 33 31 30 26 25 25 24 25 29 30 28 27 27 27 27 26 27 27 32
34 37 38 44 45 44 42 38 36 36 34 36 37 35 33 34 30 30 29 28 24 28 31 31 29 29 29 30 28 28 28 30
27 31 36 41 41 41 41 40 38 40 36 40 38 38 37 35 34 35 33 30 27 26 30 30 30 30 31 31 31 30 29 30
23 30 31 31 34 37 39 37 35 33 35 36 40 41 37 36 31 39 38 34 29 23 25 31 32 32 33 33 33 30 30 30

GFSFLT2_700_spd_120.txt.gz
Wind_Speed
21 19 14 12 11 9 6 4 4 3 4 6 8 10 11 11 12 11 10 10 10 9 8 8 8 7 7 10 10 11 9 12
26 22 18 14 12 11 8 6 5 4 5 6 10 11 12 13 13 12 12 12 10 9 9 8 8 7 6 7 9 10 9 11
32 27 22 17 14 13 10 7 6 6 6 7 10 13 14 14 14 13 13 13 11 11 10 9 8 7 7 7 8 9 10 12
36 31 27 22 18 15 13 10 8 6 7 7 9 12 14 14 14 14 14 14 13 13 12 10 9 9 9 8 9 9 12 15
39 38 33 28 23 19 15 11 10 8 8 8 10 12 15 15 15 15 15 14 14 13 13 12 10 11 11 10 10 9 11 14
45 43 38 32 28 23 19 14 12 11 9 9 10 12 13 14 14 14 14 14 13 14 14 13 13 13 12 13 13 10 11 11
50 47 42 37 33 27 23 18 14 14 12 11 11 12 13 13 14 14 14 14 14 15 15 14 15 15 14 15 15 13 11 11
52 52 48 43 38 31 27 24 20 18 15 14 13 13 13 12 13 14 14 15 16 16 16 16 17 17 16 14 15 15 13 12
50 55 52 48 42 37 32 28 25 22 18 16 16 15 14 13 13 14 14 15 16 15 17 16 17 17 16 15 15 15 15 15
45 54 58 53 48 41 36 32 28 26 24 20 19 17 15 14 13 13 13 14 15 15 15 15 16 16 17 17 16 17 18 17
47 49 58 58 52 46 39 35 31 30 29 25 22 20 19 16 15 14 14 13 13 13 13 13 14 15 16 18 18 19 20 21
53 51 50 60 56 51 44 40 35 34 33 31 26 23 22 21 18 17 16 14 13 12 12 13 13 15 16 18 19 20 22 23
54 51 50 57 62 58 49 43 37 37 35 35 31 27 25 23 21 19 19 17 15 14 14 16 15 17 18 18 19 21 22 22
58 55 52 53 62 57 49 42 38 36 33 36 33 29 28 25 23 22 22 20 19 18 16 16 17 18 20 20 22 22 22 23
56 57 55 53 60 58 53 46 40 40 33 36 34 29 27 25 25 27 26 24 23 21 20 20 21 21 22 23 24 24 25 22
51 57 58 52 54 62 57 48 43 40 33 33 33 31 28 26 25 25 27 27 26 23 24 25 26 26 25 25 25 25 25 27
45 51 54 50 52 60 59 51 43 41 36 36 34 32 31 30 29 28 26 26 26 26 27 28 30 32 29 28 28 27 25 26
36 40 47 46 52 57 62 71 43 42 38 37 35 33 34 35 33 33 31 31 29 29 26 27 31 34 33 32 30 29 28 28
33 39 41 46 50 57 63 54 44 42 38 34 33 35 35 39 35 35 35 33 32 30 30 29 29 31 33 33 33 32 32 29
24 30 36 40 47 52 48 42 45 42 36 36 39 36 37 39 39 39 34 36 33 32 34 33 28 25 31 33 34 33 33 33

GFSFLT2_700_spd_123.txt.gz
Wind_Speed
23 23 21 17 17 16 13 11 9 8 9 10 10 11 12 12 12 12 10 11 10 9 9 9 8 8 9 9 12 14 14 14
27 27 25 21 20 19 16 13 11 10 9 11 12 13 13 14 14 13 12 12 12 11 10 10 9 9 9 8 7 8 10 10
31 31 29 25 23 21 18 16 13 11 10 12 13 14 15 15 16 14 14 14 14 13 12 11 10 9 8 7 8 8 10 11
36 36 35 29 27 24 21 19 15 12 11 12 12 13 14 15 15 16 16 16 16 15 14 12 10 10 9 8 8 7 9 12
38 40 39 34 31 27 24 22 18 15 13 12 13 14 14 14 15 17 17 17 17 16 15 13 12 12 10 10 8 8 10 12
24 41 42 39 35 32 28 25 21 18 16 15 14 15 15 16 17 16 17 16 16 16 15 15 14 14 13 11 10 8 11 12
35 40 46 44 40 37 33 29 26 21 19 17 16 15 16 18 18 18 16 17 17 17 17 16 15 15 15 14 14 11 11 12
38 40 50 49 47 43 38 34 30 25 22 19 18 17 17 17 18 17 17 17 17 17 17 17 17 17 17 16 15 14 13 13
44 39 47 51 53 48 45 40 34 29 25 22 20 19 19 18 18 17 18 17 17 18 18 17 18 18 17 16 15 15 15 15
50 46 42 51 55 53 49 45 39 34 29 25 23 22 21 20 18 16 16 17 17 18 18 18 17 17 17 17 16 16 17 16
49 48 45 48 52 57 55 50 44 38 34 31 28 26 24 23 20 17 15 15 16 17 17 17 16 15 15 16 17 16 19 19
37 47 46 45 53 58 59 56 50 43 39 36 33 29 27 25 22 20 18 16 15 16 14 16 15 14 15 16 16 17 19 19
37 39 40 50 50 53 62 62 55 46 43 41 36 33 30 28 26 23 21 18 16 15 15 16 15 15 16 15 16 16 18 20
37 46 53 54 47 49 60 64 57 48 46 44 40 37 35 32 29 26 23 21 20 18 17 17 16 17 17 18 19 19 18 20
53 54 58 54 44 41 54 63 60 55 51 49 42 38 41 36 31 29 26 25 23 21 21 19 20 20 21 21 21 23 20 22
44 46 52 49 55 49 54 61 66 63 53 46 42 41 42 39 34 31 28 28 27 24 24 22 24 23 25 25 25 25 24 21
37 37 48 54 51 54 54 56 65 62 52 48 45 41 41 40 34 31 29 30 29 28 27 26 25 26 26 29 29 30 29 29
33 33 44 51 51 52 57 54 56 60 56 52 45 40 40 38 34 31 29 28 27 27 27 27 27 26 26 30 32 33 33 33
29 28 31 46 54 56 50 52 53 56 59 52 45 38 37 34 35 34 33 31 31 30 31 30 29 28 27 27 30 31 33 35
25 25 25 37 48 55 54 50 55 60 68 27 44 40 39 32 31 30 33 32 32 33 34 33 32 31 30 28 27 28 31 34

GFSFLT2_700_spd_126.txt.gz
Wind_Speed
21 22 23 22 20 18 17 16 14 13 12 11 11 12 13 13 13 13 12 11 10 10 10 9 8 8 8 9 10 11 13 13
22 24 25 25 23 20 19 18 16 15 14 13 13 14 14 14 15 14 14 13 13 12 11 10 9 9 8 7 8 6 9 9
26 27 28 29 27 23 22 20 19 17 16 15 14 15 15 15 15 15 15 15 14 14 13 11 10 9 8 6 5 7 7 8
30 26 33 32 31 27 25 23 22 20 18 16 15 15 16 16 16 16 17 17 16 16 14 13 11 10 8 6 7 6 6 7
24 32 30 33 35 33 29 26 25 23 20 18 17 16 17 18 18 17 17 17 17 16 15 14 13 13 10 8 8 7 7 7
33 29 38 35 37 36 34 31 28 26 23 21 20 18 18 19 16 17 17 17 17 16 16 15 16 14 13 9 8 8 10 6
37 30 37 40 40 39 40 35 33 31 28 24 22 20 19 18 17 18 18 18 19 17 17 17 17 15 15 10 10 10 10 10
37 39 33 44 45 42 43 42 39 35 32 27 25 22 20 20 20 20 19 19 20 18 18 17 18 17 16 12 12 11 12 11
37 40 40 37 46 45 45 47 44 40 37 28 27 25 23 22 21 22 20 21 21 20 20 18 18 17 16 14 13 13 13 14
35 40 43 42 41 47 44 49 49 46 41 33 31 28 26 26 23 22 20 22 21 20 19 17 17 17 16 15 14 14 14 14
28 34 41 44 45 47 43 45 52 52 45 39 35 33 30 27 25 23 22 21 21 20 18 17 16 16 16 16 14 14 13 13
40 35 37 41 46 43 48 42 51 55 51 44 40 37 32 30 28 25 24 22 21 19 18 17 15 15 14 15 16 15 14 13
50 48 45 42 41 46 49 51 43 55 59 49 44 40 35 33 31 28 27 23 20 19 17 17 16 15 15 14 12 13 14 14
47 53 53 57 48 46 39 48 47 49 61 52 49 44 40 37 34 30 29 25 23 22 20 19 18 17 16 15 14 15 13 15
46 52 51 55 56 55 49 53 49 43 57 57 54 49 45 39 36 34 32 30 26 24 22 22 20 19 19 17 17 16 18 17
36 41 59 53 51 59 58 60 52 42 51 59 57 54 47 42 40 38 35 33 30 28 26 24 24 22 21 19 19 21 22 25
33 36 48 58 53 54 65 52 55 48 45 58 59 54 50 45 43 42 38 34 32 31 29 28 27 25 23 22 20 23 25 27
29 32 40 50 47 49 58 60 60 50 49 56 63 58 56 47 44 44 41 36 34 32 31 30 29 27 26 25 23 23 24 28
32 38 37 45 39 44 52 64 60 56 51 59 65 61 60 50 43 43 42 37 35 33 32 30 29 29 29 27 26 24 24 24
33 37 32 35 39 41 47 64 68 50 78 53 76 64 58 48 41 41 42 38 35 32 31 30 31 32 33 32 30 26 25 23

GFSFLT2_700_spd_129.txt.gz
Wind_Speed
23 17 20 26 25 23 21 19 17 16 16 15 14 14 15 15 16 14 14 13 13 12 11 11 9 9 8 7 7 6 9 8
27 26 18 26 27 26 24 22 20 19 19 18 16 15 16 17 17 16 16 15 15 14 13 12 10 10 8 6 5 4 4 6
32 30 24 24 28 28 27 25 23 22 21 20 19 17 17 18 18 18 18 17 16 16 14 13 12 10 8 6 5 4 4 5
31 33 32 25 29 30 30 28 26 24 23 22 21 19 18 18 19 19 20 19 18 17 16 15 13 11 9 8 8 5 4 4
30 34 37 33 28 32 33 33 31 28 26 25 23 21 20 20 20 20 20 19 19 17 16 15 15 14 11 10 9 8 7 4
31 32 36 38 31 33 32 38 37 32 29 28 26 23 21 21 20 19 20 19 19 18 17 17 17 16 14 12 11 10 7 4
33 33 34 40 42 34 37 35 41 38 34 31 29 26 24 23 21 21 21 20 20 19 18 19 19 17 16 15 13 12 10 7
36 37 37 36 42 42 38 41 42 43 37 35 33 29 27 25 23 23 22 21 20 20 20 20 19 18 17 16 14 13 12 8
38 37 41 42 40 44 45 38 39 44 44 40 35 31 30 29 26 24 23 20 22 22 22 22 22 21 19 17 15 14 13 11
41 41 39 44 45 41 47 45 43 41 45 45 39 34 33 30 28 27 23 23 24 23 23 23 23 21 19 16 16 16 16 13
44 45 45 41 47 47 44 47 43 42 43 47 44 38 36 33 29 29 25 25 25 24 24 23 22 21 19 18 16 15 15 12
50 50 48 47 43 49 52 48 50 45 40 48 51 45 39 37 32 31 30 27 26 24 23 23 22 21 19 17 16 15 13 11
49 50 53 52 49 49 49 57 48 50 44 45 51 50 43 40 37 35 34 30 26 24 24 24 23 21 20 20 18 15 14 11
49 50 51 56 57 50 50 53 60 51 51 47 50 51 47 43 41 39 35 32 29 27 26 24 24 23 21 20 19 17 13 12
43 46 48 52 57 56 53 50 58 64 51 49 51 48 50 49 46 42 38 35 33 29 28 26 25 24 21 21 20 17 13 16
34 37 40 42 53 58 55 55 52 61 60 54 47 52 52 54 49 45 42 38 36 32 31 29 27 25 24 22 21 20 19 18
29 30 37 40 43 52 58 57 55 54 65 54 46 49 55 55 54 49 47 43 38 36 34 32 30 29 26 24 22 21 22 23
26 26 37 43 43 49 52 59 58 51 61 57 54 53 52 59 59 54 50 46 41 38 36 35 32 30 28 26 25 25 23 23
39 36 29 36 42 44 47 49 61 59 59 66 58 56 56 69 65 60 54 48 44 40 39 37 34 32 30 28 28 27 25 24
43 41 31 27 24 35 41 44 48 57 55 64 70 56 66 49 69 60 53 47 45 43 41 39 35 34 32 31 30 29 29 28

GFSFLT2_700_spd_132.txt.gz
Wind_Speed
28 30 25 20 27 28 27 25 23 22 19 18 17 18 18 19 19 19 18 17 15 15 15 14 13 12 11 10 8 6 6 6
26 27 29 24 23 30 30 28 25 24 23 21 20 20 20 20 21 20 19 19 17 17 16 15 14 12 12 10 9 6 6 5
30 32 32 26 24 26 31 31 29 26 26 24 23 22 21 21 21 22 21 21 19 18 17 16 15 14 13 11 10 7 6 6
36 33 35 34 24 26 30 33 32 30 29 27 25 24 22 22 22 22 22 22 21 20 19 18 16 15 14 13 12 9 8 7
41 42 37 40 38 28 30 34 35 34 32 31 29 27 25 24 24 23 23 23 22 21 19 18 18 17 16 14 12 12 9 8
30 36 37 36 40 39 33 32 33 35 36 35 33 30 28 26 24 23 23 23 23 22 20 21 20 19 18 16 15 14 12 10
20 25 35 38 38 39 40 37 36 35 36 40 37 35 31 28 27 25 24 25 25 24 23 22 22 20 20 19 18 16 14 13
28 27 22 30 41 43 43 44 40 40 38 40 42 38 35 32 30 27 25 26 26 25 24 24 23 22 21 20 20 19 17 15
33 36 38 35 32 37 51 47 46 45 46 37 42 41 39 35 33 30 27 27 26 27 27 27 27 25 23 23 22 21 19 16
41 46 44 44 46 41 39 52 54 50 48 45 41 46 41 40 37 33 30 29 30 29 28 28 26 25 24 24 22 20 19 17
51 52 53 56 54 52 48 45 55 59 53 51 44 48 47 43 39 36 33 32 32 30 29 28 28 27 25 23 22 21 20 17
58 61 65 63 53 51 53 52 50 58 60 53 48 48 49 44 43 39 35 35 34 32 29 29 29 27 26 25 23 22 20 17
66 69 65 60 56 54 55 54 54 53 59 57 52 48 48 48 47 41 37 38 35 32 30 31 30 29 27 27 26 23 23 19
68 66 61 56 53 55 53 57 56 50 55 58 56 51 49 46 49 46 42 41 38 37 33 32 30 30 30 28 28 26 23 19
53 48 46 44 42 50 51 56 58 59 51 55 62 57 52 51 55 50 47 44 40 38 35 34 32 31 32 31 29 24 18 17
43 39 37 38 40 39 46 53 59 61 57 52 56 64 57 51 52 53 52 48 44 41 38 35 34 33 33 33 29 24 21 20
35 35 37 39 37 41 41 50 55 60 61 54 51 59 65 58 56 59 61 53 48 45 41 39 36 34 33 32 30 27 25 23
40 39 37 39 37 42 47 48 51 56 60 58 55 55 63 60 60 47 63 53 52 47 44 41 39 37 35 34 31 29 26 25
37 39 36 30 24 32 44 52 51 51 53 53 57 55 58 65 62 61 56 41 53 50 48 44 42 40 37 35 33 31 29 27
40 45 45 41 30 20 26 38 48 47 50 46 51 52 58 63 58 67 56 46 58 55 50 45 44 41 40 38 35 33 31 30

GFSFLT2_700_spd_135.txt.gz
Wind_Speed
30 30 29 29 25 21 24 26 26 25 23 23 23 21 21 20 21 21 21 20 18 17 17 15 15 15 12 10 10 10 11 9
38 34 31 32 23 24 23 28 29 28 27 25 26 25 23 22 22 22 22 22 20 19 18 17 17 16 14 13 12 12 11 9
38 38 33 34 34 31 27 26 30 30 29 27 27 27 25 24 23 23 23 22 23 22 20 19 19 18 16 14 14 13 11 10
37 39 40 36 37 33 29 29 30 33 32 29 29 27 27 26 25 24 23 24 24 24 23 22 21 20 18 16 15 13 14 10
29 30 34 38 37 41 34 31 31 32 33 33 32 30 30 28 28 26 24 25 26 25 25 23 22 21 19 18 17 15 14 11
24 26 25 28 32 34 41 34 33 33 36 35 35 34 33 31 30 28 26 26 26 26 26 24 25 24 22 21 19 17 15 13
20 21 20 19 24 33 39 40 37 37 37 37 34 38 38 35 33 31 29 27 27 28 26 27 27 26 25 23 22 19 17 16
26 25 28 29 26 26 28 39 46 43 42 39 39 38 39 41 38 35 32 30 27 29 28 29 28 28 27 25 24 21 20 19
36 34 35 37 37 37 40 36 37 46 52 47 45 41 40 40 43 40 35 32 29 29 31 32 32 31 29 27 26 25 23 22
45 46 47 47 48 49 48 49 49 45 47 55 53 50 42 42 45 44 39 36 33 31 32 34 34 33 30 28 27 26 24 23
49 52 54 57 57 57 58 56 55 53 52 51 56 57 52 44 46 46 44 41 37 34 34 34 34 33 31 29 29 28 27 26
53 56 59 63 65 66 66 63 59 57 54 54 53 56 58 57 47 56 45 44 41 39 37 36 35 34 31 31 30 28 29 27
55 57 60 64 68 69 67 68 66 59 58 54 55 52 59 59 57 50 56 46 45 43 40 38 38 36 34 33 32 32 31 29
54 57 61 61 57 53 52 48 50 53 58 57 57 55 55 62 64 52 49 57 48 45 41 41 40 38 37 35 36 36 35 31
55 52 46 45 46 45 44 42 41 41 51 58 58 59 54 59 60 66 65 64 53 46 44 43 42 40 39 39 39 37 33 31
48 42 37 39 43 47 47 45 42 42 43 51 58 60 57 54 61 65 58 65 53 47 45 45 44 42 42 40 38 35 32 29
39 36 32 36 39 43 47 45 47 49 44 46 54 60 60 53 59 65 73 61 32 54 48 47 45 44 43 42 39 37 33 27
35 32 33 37 41 43 40 40 43 42 47 42 49 53 59 57 55 62 61 64 44 47 47 49 47 46 44 41 41 37 33 32
36 36 36 40 43 42 34 32 33 37 37 43 45 47 54 58 55 55 58 54 52 52 45 52 50 48 44 42 40 39 36 31
37 38 40 42 45 29 21 20 25 32 34 34 43 40 44 53 54 54 53 54 57 54 43 47 54 49 46 43 41 40 38 35